Multibeam Report for RR1313


Ship Name: Roger Revelle
Chief Scientist: Rosenthal, Yair
Rutgers, The State University of New Jersey
Source Organization: Rolling Deck to Repository
Start Date: 2013-09-08
End Date: 2013-10-03


View ISO Metadata

Visit the full NCEI Bathymetry Viewer


Multibeam Bathymetry

Cruise Details

Project: Paleoceanographic Records of Western Pacific Warm Pool Variability
Instrument: Kongsberg EM122

Data Quality

Number of Files: 1128
Number of Records: 340927
BATHYMETRY DATA Quantity Percentage
Number of Beams 147280464 100%
Number of Good Beams 135535713 92.03%
Number of Zero Beams 3056 0.0%
Number of Flagged Beams 11741695 7.97%
AMPLITUDE DATA Quantity Percentage
Number of Beams 147280464 100%
Number of Good Beams 135535713 92.03%
Number of Zero Beams 3056 0.0%
Number of Flagged Beams 11741695 7.97%
SIDESCAN DATA Quantity Percentage
Number of Pixels 349109248 100%
Number of Good Pixels 260197901 74.53%
Number of Zero Pixels 0 0%
Number of Flagged Pixels 88911347 25.47%

Navigation Totals

Total Time: 553.1996 hours
Total Track Length: 8094.7694 km
Average Speed: 14.633 km/hr (7.9012 knots)

Cruise Bounds

Northern Extent: 16.3927
Southern Extent: -10.409912
Western Extent: 120.52278
Eastern Extent: 150.98827

Limits

Minimum Sonar Depth 2.758 Maximum Sonar Depth 8.2397
Minimum Altitude 44.9087 Maximum Altitude 9865.9736
Minimum Depth 44.5116 Maximum Depth 10090.9727
Minimum Amplitude 0 Maximum Amplitude 26.7
Minimum Sidescan 0 Maximum Sidescan 42.36

File Information

Full Resolution Bathymetry as collected (raw): 1124

Files File Size Description
0000_20130908_052120_revelle.all.mb58.gz 478.2KB Kongsberg multibeam vendor format
0001_20130908_061340_revelle.all.mb58.gz 17.06MB Kongsberg multibeam vendor format
0002_20130908_194016_revelle.all.mb58.gz 45.29MB Kongsberg multibeam vendor format
0003_20130908_201006_revelle.all.mb58.gz 48.27MB Kongsberg multibeam vendor format
0004_20130908_204007_revelle.all.mb58.gz 52.59MB Kongsberg multibeam vendor format
0005_20130908_211006_revelle.all.mb58.gz 70.58MB Kongsberg multibeam vendor format
0006_20130908_214005_revelle.all.mb58.gz 129.11MB Kongsberg multibeam vendor format
0007_20130908_221006_revelle.all.mb58.gz 41.64MB Kongsberg multibeam vendor format
0008_20130908_224008_revelle.all.mb58.gz 37.83MB Kongsberg multibeam vendor format
0009_20130908_231007_revelle.all.mb58.gz 38.23MB Kongsberg multibeam vendor format
0010_20130908_234005_revelle.all.mb58.gz 38.21MB Kongsberg multibeam vendor format
0011_20130909_001006_revelle.all.mb58.gz 38.28MB Kongsberg multibeam vendor format
0012_20130909_004009_revelle.all.mb58.gz 38.29MB Kongsberg multibeam vendor format
0013_20130909_011006_revelle.all.mb58.gz 38.34MB Kongsberg multibeam vendor format
0014_20130909_014005_revelle.all.mb58.gz 38.43MB Kongsberg multibeam vendor format
0015_20130909_021007_revelle.all.mb58.gz 38.27MB Kongsberg multibeam vendor format
0016_20130909_024003_revelle.all.mb58.gz 38.21MB Kongsberg multibeam vendor format
0017_20130909_031003_revelle.all.mb58.gz 38.40MB Kongsberg multibeam vendor format
0018_20130909_034008_revelle.all.mb58.gz 37.70MB Kongsberg multibeam vendor format
0019_20130909_041010_revelle.all.mb58.gz 37.52MB Kongsberg multibeam vendor format
0020_20130909_044009_revelle.all.mb58.gz 38.97MB Kongsberg multibeam vendor format
0021_20130909_051007_revelle.all.mb58.gz 38.86MB Kongsberg multibeam vendor format
0022_20130909_054003_revelle.all.mb58.gz 38.68MB Kongsberg multibeam vendor format
0023_20130909_061003_revelle.all.mb58.gz 38.92MB Kongsberg multibeam vendor format
0024_20130909_064002_revelle.all.mb58.gz 39.14MB Kongsberg multibeam vendor format
0025_20130909_071008_revelle.all.mb58.gz 39.29MB Kongsberg multibeam vendor format
0026_20130909_074004_revelle.all.mb58.gz 39.59MB Kongsberg multibeam vendor format
0027_20130909_081006_revelle.all.mb58.gz 34.60MB Kongsberg multibeam vendor format
0028_20130909_084006_revelle.all.mb58.gz 35.33MB Kongsberg multibeam vendor format
0029_20130909_091002_revelle.all.mb58.gz 46.16MB Kongsberg multibeam vendor format
0030_20130909_094002_revelle.all.mb58.gz 43.32MB Kongsberg multibeam vendor format
0031_20130909_101004_revelle.all.mb58.gz 41.21MB Kongsberg multibeam vendor format
0032_20130909_104003_revelle.all.mb58.gz 41.46MB Kongsberg multibeam vendor format
0033_20130909_111001_revelle.all.mb58.gz 44.95MB Kongsberg multibeam vendor format
0034_20130909_114003_revelle.all.mb58.gz 45.98MB Kongsberg multibeam vendor format
0035_20130909_121003_revelle.all.mb58.gz 46.59MB Kongsberg multibeam vendor format
0036_20130909_124001_revelle.all.mb58.gz 46.17MB Kongsberg multibeam vendor format
0037_20130909_131002_revelle.all.mb58.gz 45.98MB Kongsberg multibeam vendor format
0038_20130909_134001_revelle.all.mb58.gz 45.92MB Kongsberg multibeam vendor format
0039_20130909_141001_revelle.all.mb58.gz 46.11MB Kongsberg multibeam vendor format
0040_20130909_144000_revelle.all.mb58.gz 46.45MB Kongsberg multibeam vendor format
0041_20130909_151001_revelle.all.mb58.gz 46.19MB Kongsberg multibeam vendor format
0042_20130909_154001_revelle.all.mb58.gz 45.84MB Kongsberg multibeam vendor format
0043_20130909_161000_revelle.all.mb58.gz 45.72MB Kongsberg multibeam vendor format
0044_20130909_164000_revelle.all.mb58.gz 45.91MB Kongsberg multibeam vendor format
0045_20130909_171001_revelle.all.mb58.gz 45.99MB Kongsberg multibeam vendor format
0046_20130909_174001_revelle.all.mb58.gz 46.35MB Kongsberg multibeam vendor format
0047_20130909_181001_revelle.all.mb58.gz 46.24MB Kongsberg multibeam vendor format
0048_20130909_183959_revelle.all.mb58.gz 46.34MB Kongsberg multibeam vendor format
0049_20130909_190959_revelle.all.mb58.gz 46.30MB Kongsberg multibeam vendor format
0050_20130909_193958_revelle.all.mb58.gz 45.62MB Kongsberg multibeam vendor format
0051_20130909_200959_revelle.all.mb58.gz 45.81MB Kongsberg multibeam vendor format
0052_20130909_204000_revelle.all.mb58.gz 45.43MB Kongsberg multibeam vendor format
0053_20130909_211000_revelle.all.mb58.gz 46.66MB Kongsberg multibeam vendor format
0054_20130909_213958_revelle.all.mb58.gz 48.14MB Kongsberg multibeam vendor format
0055_20130909_220959_revelle.all.mb58.gz 49.17MB Kongsberg multibeam vendor format
0056_20130909_223958_revelle.all.mb58.gz 49.86MB Kongsberg multibeam vendor format
0057_20130909_230959_revelle.all.mb58.gz 50.21MB Kongsberg multibeam vendor format
0058_20130909_233957_revelle.all.mb58.gz 47.96MB Kongsberg multibeam vendor format
0059_20130910_000958_revelle.all.mb58.gz 43.22MB Kongsberg multibeam vendor format
0060_20130910_004000_revelle.all.mb58.gz 37.39MB Kongsberg multibeam vendor format
0061_20130910_011005_revelle.all.mb58.gz 36.46MB Kongsberg multibeam vendor format
0062_20130910_013957_revelle.all.mb58.gz 34.49MB Kongsberg multibeam vendor format
0063_20130910_020959_revelle.all.mb58.gz 10.52MB Kongsberg multibeam vendor format
0064_20130910_022130_revelle.all.mb58.gz 28.49MB Kongsberg multibeam vendor format
0065_20130910_025112_revelle.all.mb58.gz 28.75MB Kongsberg multibeam vendor format
0066_20130910_032122_revelle.all.mb58.gz 28.64MB Kongsberg multibeam vendor format
0067_20130910_035125_revelle.all.mb58.gz 28.08MB Kongsberg multibeam vendor format
0068_20130910_042114_revelle.all.mb58.gz 28.28MB Kongsberg multibeam vendor format
0069_20130910_045118_revelle.all.mb58.gz 28.06MB Kongsberg multibeam vendor format
0070_20130910_052112_revelle.all.mb58.gz 28.09MB Kongsberg multibeam vendor format
0071_20130910_055110_revelle.all.mb58.gz 28.03MB Kongsberg multibeam vendor format
0072_20130910_062110_revelle.all.mb58.gz 28.01MB Kongsberg multibeam vendor format
0073_20130910_065109_revelle.all.mb58.gz 28.29MB Kongsberg multibeam vendor format
0074_20130910_072119_revelle.all.mb58.gz 28.55MB Kongsberg multibeam vendor format
0075_20130910_075121_revelle.all.mb58.gz 28.51MB Kongsberg multibeam vendor format
0076_20130910_082121_revelle.all.mb58.gz 28.67MB Kongsberg multibeam vendor format
0077_20130910_085121_revelle.all.mb58.gz 28.58MB Kongsberg multibeam vendor format
0078_20130910_092114_revelle.all.mb58.gz 28.73MB Kongsberg multibeam vendor format
0079_20130910_095112_revelle.all.mb58.gz 28.73MB Kongsberg multibeam vendor format
0080_20130910_102113_revelle.all.mb58.gz 28.74MB Kongsberg multibeam vendor format
0081_20130910_105116_revelle.all.mb58.gz 28.49MB Kongsberg multibeam vendor format
0082_20130910_112110_revelle.all.mb58.gz 28.80MB Kongsberg multibeam vendor format
0083_20130910_115122_revelle.all.mb58.gz 28.29MB Kongsberg multibeam vendor format
0084_20130910_122113_revelle.all.mb58.gz 28.59MB Kongsberg multibeam vendor format
0085_20130910_125117_revelle.all.mb58.gz 30.25MB Kongsberg multibeam vendor format
0086_20130910_132109_revelle.all.mb58.gz 40.17MB Kongsberg multibeam vendor format
0087_20130910_135105_revelle.all.mb58.gz 40.59MB Kongsberg multibeam vendor format
0088_20130910_142105_revelle.all.mb58.gz 40.86MB Kongsberg multibeam vendor format
0089_20130910_145106_revelle.all.mb58.gz 40.67MB Kongsberg multibeam vendor format
0090_20130910_152107_revelle.all.mb58.gz 39.00MB Kongsberg multibeam vendor format
0091_20130910_155105_revelle.all.mb58.gz 42.96MB Kongsberg multibeam vendor format
0092_20130910_162104_revelle.all.mb58.gz 42.68MB Kongsberg multibeam vendor format
0093_20130910_165106_revelle.all.mb58.gz 39.69MB Kongsberg multibeam vendor format
0094_20130910_172107_revelle.all.mb58.gz 38.33MB Kongsberg multibeam vendor format
0095_20130910_175105_revelle.all.mb58.gz 38.76MB Kongsberg multibeam vendor format
0096_20130910_182106_revelle.all.mb58.gz 39.78MB Kongsberg multibeam vendor format
0097_20130910_185105_revelle.all.mb58.gz 40.14MB Kongsberg multibeam vendor format
0098_20130910_192104_revelle.all.mb58.gz 38.94MB Kongsberg multibeam vendor format
0099_20130910_195108_revelle.all.mb58.gz 38.55MB Kongsberg multibeam vendor format
0100_20130910_202105_revelle.all.mb58.gz 38.81MB Kongsberg multibeam vendor format
0101_20130910_205103_revelle.all.mb58.gz 39.15MB Kongsberg multibeam vendor format
0102_20130910_212106_revelle.all.mb58.gz 39.13MB Kongsberg multibeam vendor format
0103_20130910_215105_revelle.all.mb58.gz 38.61MB Kongsberg multibeam vendor format
0104_20130910_222104_revelle.all.mb58.gz 37.92MB Kongsberg multibeam vendor format
0105_20130910_225106_revelle.all.mb58.gz 37.73MB Kongsberg multibeam vendor format
0106_20130910_232103_revelle.all.mb58.gz 37.71MB Kongsberg multibeam vendor format
0107_20130910_235106_revelle.all.mb58.gz 37.35MB Kongsberg multibeam vendor format
0108_20130911_002104_revelle.all.mb58.gz 38.44MB Kongsberg multibeam vendor format
0109_20130911_005108_revelle.all.mb58.gz 38.13MB Kongsberg multibeam vendor format
0110_20130911_012106_revelle.all.mb58.gz 38.41MB Kongsberg multibeam vendor format
0111_20130911_015103_revelle.all.mb58.gz 38.87MB Kongsberg multibeam vendor format
0112_20130911_022106_revelle.all.mb58.gz 38.50MB Kongsberg multibeam vendor format
0113_20130911_025107_revelle.all.mb58.gz 38.29MB Kongsberg multibeam vendor format
0114_20130911_032107_revelle.all.mb58.gz 38.63MB Kongsberg multibeam vendor format
0115_20130911_035106_revelle.all.mb58.gz 38.63MB Kongsberg multibeam vendor format
0116_20130911_042104_revelle.all.mb58.gz 38.60MB Kongsberg multibeam vendor format
0117_20130911_045103_revelle.all.mb58.gz 38.72MB Kongsberg multibeam vendor format
0118_20130911_052106_revelle.all.mb58.gz 38.58MB Kongsberg multibeam vendor format
0119_20130911_055104_revelle.all.mb58.gz 38.60MB Kongsberg multibeam vendor format
0120_20130911_062104_revelle.all.mb58.gz 38.51MB Kongsberg multibeam vendor format
0121_20130911_065102_revelle.all.mb58.gz 38.70MB Kongsberg multibeam vendor format
0122_20130911_072106_revelle.all.mb58.gz 38.61MB Kongsberg multibeam vendor format
0123_20130911_075105_revelle.all.mb58.gz 38.58MB Kongsberg multibeam vendor format
0124_20130911_082104_revelle.all.mb58.gz 38.63MB Kongsberg multibeam vendor format
0125_20130911_085103_revelle.all.mb58.gz 38.67MB Kongsberg multibeam vendor format
0126_20130911_092103_revelle.all.mb58.gz 38.57MB Kongsberg multibeam vendor format
0127_20130911_095059_revelle.all.mb58.gz 38.77MB Kongsberg multibeam vendor format
0128_20130911_102103_revelle.all.mb58.gz 38.64MB Kongsberg multibeam vendor format
0129_20130911_105104_revelle.all.mb58.gz 38.62MB Kongsberg multibeam vendor format
0130_20130911_112102_revelle.all.mb58.gz 38.68MB Kongsberg multibeam vendor format
0131_20130911_115103_revelle.all.mb58.gz 38.67MB Kongsberg multibeam vendor format
0132_20130911_122103_revelle.all.mb58.gz 39.08MB Kongsberg multibeam vendor format
0133_20130911_125102_revelle.all.mb58.gz 39.24MB Kongsberg multibeam vendor format
0134_20130911_132058_revelle.all.mb58.gz 39.83MB Kongsberg multibeam vendor format
0135_20130911_135059_revelle.all.mb58.gz 40.88MB Kongsberg multibeam vendor format
0136_20130911_142100_revelle.all.mb58.gz 40.76MB Kongsberg multibeam vendor format
0137_20130911_145102_revelle.all.mb58.gz 39.60MB Kongsberg multibeam vendor format
0138_20130911_152100_revelle.all.mb58.gz 40.04MB Kongsberg multibeam vendor format
0139_20130911_155059_revelle.all.mb58.gz 40.17MB Kongsberg multibeam vendor format
0140_20130911_162059_revelle.all.mb58.gz 40.23MB Kongsberg multibeam vendor format
0141_20130911_165101_revelle.all.mb58.gz 40.22MB Kongsberg multibeam vendor format
0142_20130911_172100_revelle.all.mb58.gz 40.10MB Kongsberg multibeam vendor format
0143_20130911_175059_revelle.all.mb58.gz 39.91MB Kongsberg multibeam vendor format
0144_20130911_182056_revelle.all.mb58.gz 40.08MB Kongsberg multibeam vendor format
0145_20130911_185100_revelle.all.mb58.gz 40.01MB Kongsberg multibeam vendor format
0146_20130911_192100_revelle.all.mb58.gz 39.81MB Kongsberg multibeam vendor format
0147_20130911_195056_revelle.all.mb58.gz 40.07MB Kongsberg multibeam vendor format
0148_20130911_202100_revelle.all.mb58.gz 39.87MB Kongsberg multibeam vendor format
0149_20130911_205058_revelle.all.mb58.gz 39.69MB Kongsberg multibeam vendor format
0150_20130911_212056_revelle.all.mb58.gz 39.51MB Kongsberg multibeam vendor format
0151_20130911_215101_revelle.all.mb58.gz 39.21MB Kongsberg multibeam vendor format
0152_20130911_222059_revelle.all.mb58.gz 38.80MB Kongsberg multibeam vendor format
0153_20130911_225057_revelle.all.mb58.gz 39.81MB Kongsberg multibeam vendor format
0154_20130911_232058_revelle.all.mb58.gz 41.11MB Kongsberg multibeam vendor format
0155_20130911_235058_revelle.all.mb58.gz 42.60MB Kongsberg multibeam vendor format
0156_20130912_002055_revelle.all.mb58.gz 42.73MB Kongsberg multibeam vendor format
0157_20130912_005055_revelle.all.mb58.gz 41.37MB Kongsberg multibeam vendor format
0158_20130912_012055_revelle.all.mb58.gz 39.54MB Kongsberg multibeam vendor format
0159_20130912_015057_revelle.all.mb58.gz 39.71MB Kongsberg multibeam vendor format
0160_20130912_022056_revelle.all.mb58.gz 40.92MB Kongsberg multibeam vendor format
0161_20130912_025056_revelle.all.mb58.gz 41.79MB Kongsberg multibeam vendor format
0162_20130912_032056_revelle.all.mb58.gz 43.34MB Kongsberg multibeam vendor format
0163_20130912_035057_revelle.all.mb58.gz 42.33MB Kongsberg multibeam vendor format
0164_20130912_042054_revelle.all.mb58.gz 38.39MB Kongsberg multibeam vendor format
0165_20130912_064240_revelle.all.mb58.gz 42.29MB Kongsberg multibeam vendor format
0166_20130912_071221_revelle.all.mb58.gz 42.74MB Kongsberg multibeam vendor format
0167_20130912_074220_revelle.all.mb58.gz 42.77MB Kongsberg multibeam vendor format
0168_20130912_081220_revelle.all.mb58.gz 42.89MB Kongsberg multibeam vendor format
0169_20130912_084223_revelle.all.mb58.gz 42.78MB Kongsberg multibeam vendor format
0170_20130912_091222_revelle.all.mb58.gz 42.74MB Kongsberg multibeam vendor format
0171_20130912_094220_revelle.all.mb58.gz 42.84MB Kongsberg multibeam vendor format
0172_20130912_101221_revelle.all.mb58.gz 42.81MB Kongsberg multibeam vendor format
0173_20130912_104222_revelle.all.mb58.gz 42.58MB Kongsberg multibeam vendor format
0174_20130912_111221_revelle.all.mb58.gz 40.89MB Kongsberg multibeam vendor format
0175_20130912_114222_revelle.all.mb58.gz 38.82MB Kongsberg multibeam vendor format
0176_20130912_121218_revelle.all.mb58.gz 36.34MB Kongsberg multibeam vendor format
0177_20130912_124227_revelle.all.mb58.gz 37.05MB Kongsberg multibeam vendor format
0178_20130912_131223_revelle.all.mb58.gz 37.12MB Kongsberg multibeam vendor format
0179_20130912_134219_revelle.all.mb58.gz 37.39MB Kongsberg multibeam vendor format
0180_20130912_141226_revelle.all.mb58.gz 37.06MB Kongsberg multibeam vendor format
0181_20130912_144220_revelle.all.mb58.gz 37.11MB Kongsberg multibeam vendor format
0182_20130912_151221_revelle.all.mb58.gz 37.25MB Kongsberg multibeam vendor format
0183_20130912_154222_revelle.all.mb58.gz 36.73MB Kongsberg multibeam vendor format
0184_20130912_161222_revelle.all.mb58.gz 36.58MB Kongsberg multibeam vendor format
0185_20130912_164220_revelle.all.mb58.gz 36.90MB Kongsberg multibeam vendor format
0186_20130912_171222_revelle.all.mb58.gz 36.52MB Kongsberg multibeam vendor format
0187_20130912_174218_revelle.all.mb58.gz 36.47MB Kongsberg multibeam vendor format
0188_20130912_181218_revelle.all.mb58.gz 36.96MB Kongsberg multibeam vendor format
0189_20130912_184221_revelle.all.mb58.gz 37.36MB Kongsberg multibeam vendor format
0190_20130912_191222_revelle.all.mb58.gz 37.08MB Kongsberg multibeam vendor format
0191_20130912_194222_revelle.all.mb58.gz 37.50MB Kongsberg multibeam vendor format
0192_20130912_201221_revelle.all.mb58.gz 37.82MB Kongsberg multibeam vendor format
0193_20130912_204219_revelle.all.mb58.gz 38.16MB Kongsberg multibeam vendor format
0194_20130912_211220_revelle.all.mb58.gz 38.70MB Kongsberg multibeam vendor format
0195_20130912_214220_revelle.all.mb58.gz 39.33MB Kongsberg multibeam vendor format
0196_20130912_221220_revelle.all.mb58.gz 39.15MB Kongsberg multibeam vendor format
0197_20130912_224218_revelle.all.mb58.gz 38.13MB Kongsberg multibeam vendor format
0198_20130912_231217_revelle.all.mb58.gz 37.69MB Kongsberg multibeam vendor format
0199_20130912_234221_revelle.all.mb58.gz 37.48MB Kongsberg multibeam vendor format
0200_20130913_001218_revelle.all.mb58.gz 37.20MB Kongsberg multibeam vendor format
0201_20130913_004220_revelle.all.mb58.gz 37.04MB Kongsberg multibeam vendor format
0202_20130913_011219_revelle.all.mb58.gz 37.03MB Kongsberg multibeam vendor format
0203_20130913_014216_revelle.all.mb58.gz 37.11MB Kongsberg multibeam vendor format
0204_20130913_021218_revelle.all.mb58.gz 37.11MB Kongsberg multibeam vendor format
0205_20130913_024214_revelle.all.mb58.gz 37.32MB Kongsberg multibeam vendor format
0206_20130913_031221_revelle.all.mb58.gz 37.18MB Kongsberg multibeam vendor format
0207_20130913_034221_revelle.all.mb58.gz 37.24MB Kongsberg multibeam vendor format
0208_20130913_041217_revelle.all.mb58.gz 37.34MB Kongsberg multibeam vendor format
0209_20130913_044216_revelle.all.mb58.gz 37.41MB Kongsberg multibeam vendor format
0210_20130913_051216_revelle.all.mb58.gz 37.59MB Kongsberg multibeam vendor format
0211_20130913_054218_revelle.all.mb58.gz 37.55MB Kongsberg multibeam vendor format
0212_20130913_061217_revelle.all.mb58.gz 37.70MB Kongsberg multibeam vendor format
0213_20130913_064217_revelle.all.mb58.gz 38.00MB Kongsberg multibeam vendor format
0214_20130913_071216_revelle.all.mb58.gz 38.11MB Kongsberg multibeam vendor format
0215_20130913_074216_revelle.all.mb58.gz 38.22MB Kongsberg multibeam vendor format
0216_20130913_081219_revelle.all.mb58.gz 38.10MB Kongsberg multibeam vendor format
0217_20130913_084216_revelle.all.mb58.gz 38.06MB Kongsberg multibeam vendor format
0218_20130913_091214_revelle.all.mb58.gz 38.29MB Kongsberg multibeam vendor format
0219_20130913_094214_revelle.all.mb58.gz 38.72MB Kongsberg multibeam vendor format
0220_20130913_101214_revelle.all.mb58.gz 39.25MB Kongsberg multibeam vendor format
0221_20130913_104216_revelle.all.mb58.gz 39.60MB Kongsberg multibeam vendor format
0222_20130913_111213_revelle.all.mb58.gz 40.05MB Kongsberg multibeam vendor format
0223_20130913_114215_revelle.all.mb58.gz 39.92MB Kongsberg multibeam vendor format
0224_20130913_121211_revelle.all.mb58.gz 40.72MB Kongsberg multibeam vendor format
0225_20130913_124215_revelle.all.mb58.gz 41.07MB Kongsberg multibeam vendor format
0226_20130913_131213_revelle.all.mb58.gz 41.42MB Kongsberg multibeam vendor format
0227_20130913_134212_revelle.all.mb58.gz 41.53MB Kongsberg multibeam vendor format
0228_20130913_141214_revelle.all.mb58.gz 41.69MB Kongsberg multibeam vendor format
0229_20130913_144213_revelle.all.mb58.gz 41.72MB Kongsberg multibeam vendor format
0230_20130913_151211_revelle.all.mb58.gz 41.33MB Kongsberg multibeam vendor format
0231_20130913_154212_revelle.all.mb58.gz 40.79MB Kongsberg multibeam vendor format
0232_20130913_161214_revelle.all.mb58.gz 40.02MB Kongsberg multibeam vendor format
0233_20130913_164210_revelle.all.mb58.gz 40.03MB Kongsberg multibeam vendor format
0234_20130913_171211_revelle.all.mb58.gz 39.79MB Kongsberg multibeam vendor format
0235_20130913_174211_revelle.all.mb58.gz 39.46MB Kongsberg multibeam vendor format
0236_20130913_181210_revelle.all.mb58.gz 39.47MB Kongsberg multibeam vendor format
0237_20130913_184214_revelle.all.mb58.gz 39.29MB Kongsberg multibeam vendor format
0238_20130913_191212_revelle.all.mb58.gz 39.09MB Kongsberg multibeam vendor format
0239_20130913_194212_revelle.all.mb58.gz 38.92MB Kongsberg multibeam vendor format
0240_20130913_201212_revelle.all.mb58.gz 39.03MB Kongsberg multibeam vendor format
0241_20130913_204211_revelle.all.mb58.gz 39.14MB Kongsberg multibeam vendor format
0242_20130913_211211_revelle.all.mb58.gz 39.22MB Kongsberg multibeam vendor format
0243_20130913_214208_revelle.all.mb58.gz 39.40MB Kongsberg multibeam vendor format
0244_20130913_221208_revelle.all.mb58.gz 39.53MB Kongsberg multibeam vendor format
0245_20130913_224209_revelle.all.mb58.gz 39.66MB Kongsberg multibeam vendor format
0246_20130913_231210_revelle.all.mb58.gz 39.85MB Kongsberg multibeam vendor format
0247_20130913_234211_revelle.all.mb58.gz 39.82MB Kongsberg multibeam vendor format
0248_20130914_001209_revelle.all.mb58.gz 39.58MB Kongsberg multibeam vendor format
0249_20130914_004211_revelle.all.mb58.gz 39.44MB Kongsberg multibeam vendor format
0250_20130914_011210_revelle.all.mb58.gz 39.86MB Kongsberg multibeam vendor format
0251_20130914_014211_revelle.all.mb58.gz 39.52MB Kongsberg multibeam vendor format
0252_20130914_021210_revelle.all.mb58.gz 40.06MB Kongsberg multibeam vendor format
0253_20130914_024209_revelle.all.mb58.gz 40.26MB Kongsberg multibeam vendor format
0254_20130914_031209_revelle.all.mb58.gz 40.61MB Kongsberg multibeam vendor format
0255_20130914_034209_revelle.all.mb58.gz 41.35MB Kongsberg multibeam vendor format
0256_20130914_041210_revelle.all.mb58.gz 41.46MB Kongsberg multibeam vendor format
0257_20130914_044209_revelle.all.mb58.gz 41.66MB Kongsberg multibeam vendor format
0258_20130914_051208_revelle.all.mb58.gz 41.81MB Kongsberg multibeam vendor format
0259_20130914_054207_revelle.all.mb58.gz 41.65MB Kongsberg multibeam vendor format
0260_20130914_061206_revelle.all.mb58.gz 41.04MB Kongsberg multibeam vendor format
0261_20130914_064206_revelle.all.mb58.gz 41.66MB Kongsberg multibeam vendor format
0262_20130914_071209_revelle.all.mb58.gz 41.56MB Kongsberg multibeam vendor format
0263_20130914_074209_revelle.all.mb58.gz 41.48MB Kongsberg multibeam vendor format
0264_20130914_081208_revelle.all.mb58.gz 41.61MB Kongsberg multibeam vendor format
0265_20130914_084209_revelle.all.mb58.gz 41.52MB Kongsberg multibeam vendor format
0266_20130914_091209_revelle.all.mb58.gz 41.52MB Kongsberg multibeam vendor format
0267_20130914_094209_revelle.all.mb58.gz 41.56MB Kongsberg multibeam vendor format
0268_20130914_101208_revelle.all.mb58.gz 41.70MB Kongsberg multibeam vendor format
0269_20130914_104207_revelle.all.mb58.gz 41.76MB Kongsberg multibeam vendor format
0270_20130914_111208_revelle.all.mb58.gz 41.57MB Kongsberg multibeam vendor format
0271_20130914_114206_revelle.all.mb58.gz 41.02MB Kongsberg multibeam vendor format
0272_20130914_121208_revelle.all.mb58.gz 39.07MB Kongsberg multibeam vendor format
0273_20130914_124206_revelle.all.mb58.gz 38.10MB Kongsberg multibeam vendor format
0274_20130914_131207_revelle.all.mb58.gz 37.55MB Kongsberg multibeam vendor format
0275_20130914_134212_revelle.all.mb58.gz 36.94MB Kongsberg multibeam vendor format
0276_20130914_141207_revelle.all.mb58.gz 36.76MB Kongsberg multibeam vendor format
0277_20130914_144205_revelle.all.mb58.gz 36.69MB Kongsberg multibeam vendor format
0278_20130914_151205_revelle.all.mb58.gz 36.32MB Kongsberg multibeam vendor format
0279_20130914_154203_revelle.all.mb58.gz 36.51MB Kongsberg multibeam vendor format
0280_20130914_161213_revelle.all.mb58.gz 36.26MB Kongsberg multibeam vendor format
0281_20130914_164211_revelle.all.mb58.gz 36.91MB Kongsberg multibeam vendor format
0282_20130914_171203_revelle.all.mb58.gz 37.53MB Kongsberg multibeam vendor format
0283_20130914_174207_revelle.all.mb58.gz 37.52MB Kongsberg multibeam vendor format
0284_20130914_181203_revelle.all.mb58.gz 37.76MB Kongsberg multibeam vendor format
0285_20130914_184209_revelle.all.mb58.gz 37.53MB Kongsberg multibeam vendor format
0286_20130914_191204_revelle.all.mb58.gz 37.21MB Kongsberg multibeam vendor format
0287_20130914_194206_revelle.all.mb58.gz 33.80MB Kongsberg multibeam vendor format
0288_20130914_201211_revelle.all.mb58.gz 36.59MB Kongsberg multibeam vendor format
0289_20130914_204203_revelle.all.mb58.gz 38.95MB Kongsberg multibeam vendor format
0290_20130914_211206_revelle.all.mb58.gz 38.22MB Kongsberg multibeam vendor format
0291_20130914_214202_revelle.all.mb58.gz 38.63MB Kongsberg multibeam vendor format
0292_20130914_221204_revelle.all.mb58.gz 39.00MB Kongsberg multibeam vendor format
0293_20130914_224204_revelle.all.mb58.gz 37.91MB Kongsberg multibeam vendor format
0294_20130914_231203_revelle.all.mb58.gz 38.38MB Kongsberg multibeam vendor format
0295_20130914_234201_revelle.all.mb58.gz 38.54MB Kongsberg multibeam vendor format
0296_20130915_001205_revelle.all.mb58.gz 37.67MB Kongsberg multibeam vendor format
0297_20130915_004204_revelle.all.mb58.gz 40.58MB Kongsberg multibeam vendor format
0298_20130915_011259_revelle.all.mb58.gz 40.37MB Kongsberg multibeam vendor format
0299_20130915_014301_revelle.all.mb58.gz 39.15MB Kongsberg multibeam vendor format
0300_20130915_021301_revelle.all.mb58.gz 37.63MB Kongsberg multibeam vendor format
0301_20130915_024302_revelle.all.mb58.gz 36.79MB Kongsberg multibeam vendor format
0302_20130915_031300_revelle.all.mb58.gz 41.83MB Kongsberg multibeam vendor format
0303_20130915_034301_revelle.all.mb58.gz 39.35MB Kongsberg multibeam vendor format
0304_20130915_041259_revelle.all.mb58.gz 38.44MB Kongsberg multibeam vendor format
0305_20130915_044259_revelle.all.mb58.gz 37.94MB Kongsberg multibeam vendor format
0306_20130915_051303_revelle.all.mb58.gz 39.83MB Kongsberg multibeam vendor format
0307_20130915_054302_revelle.all.mb58.gz 39.66MB Kongsberg multibeam vendor format
0308_20130915_061259_revelle.all.mb58.gz 39.82MB Kongsberg multibeam vendor format
0309_20130915_064302_revelle.all.mb58.gz 39.74MB Kongsberg multibeam vendor format
0310_20130915_071300_revelle.all.mb58.gz 39.80MB Kongsberg multibeam vendor format
0311_20130915_074301_revelle.all.mb58.gz 39.71MB Kongsberg multibeam vendor format
0312_20130915_081257_revelle.all.mb58.gz 39.84MB Kongsberg multibeam vendor format
0313_20130915_084301_revelle.all.mb58.gz 38.89MB Kongsberg multibeam vendor format
0314_20130915_091301_revelle.all.mb58.gz 39.76MB Kongsberg multibeam vendor format
0315_20130915_094259_revelle.all.mb58.gz 40.26MB Kongsberg multibeam vendor format
0316_20130915_101259_revelle.all.mb58.gz 42.39MB Kongsberg multibeam vendor format
0317_20130915_104257_revelle.all.mb58.gz 42.22MB Kongsberg multibeam vendor format
0318_20130915_111259_revelle.all.mb58.gz 42.06MB Kongsberg multibeam vendor format
0319_20130915_114300_revelle.all.mb58.gz 39.56MB Kongsberg multibeam vendor format
0320_20130915_121257_revelle.all.mb58.gz 39.89MB Kongsberg multibeam vendor format
0321_20130915_124259_revelle.all.mb58.gz 39.39MB Kongsberg multibeam vendor format
0322_20130915_131258_revelle.all.mb58.gz 39.63MB Kongsberg multibeam vendor format
0323_20130915_134300_revelle.all.mb58.gz 39.46MB Kongsberg multibeam vendor format
0324_20130915_141256_revelle.all.mb58.gz 39.40MB Kongsberg multibeam vendor format
0325_20130915_144257_revelle.all.mb58.gz 39.48MB Kongsberg multibeam vendor format
0326_20130915_151256_revelle.all.mb58.gz 39.49MB Kongsberg multibeam vendor format
0327_20130915_154255_revelle.all.mb58.gz 39.51MB Kongsberg multibeam vendor format
0328_20130915_161256_revelle.all.mb58.gz 39.39MB Kongsberg multibeam vendor format
0329_20130915_164256_revelle.all.mb58.gz 39.52MB Kongsberg multibeam vendor format
0330_20130915_171258_revelle.all.mb58.gz 39.40MB Kongsberg multibeam vendor format
0331_20130915_174254_revelle.all.mb58.gz 39.46MB Kongsberg multibeam vendor format
0332_20130915_181254_revelle.all.mb58.gz 39.36MB Kongsberg multibeam vendor format
0333_20130915_184254_revelle.all.mb58.gz 39.41MB Kongsberg multibeam vendor format
0334_20130915_191255_revelle.all.mb58.gz 36.61MB Kongsberg multibeam vendor format
0335_20130915_194300_revelle.all.mb58.gz 36.11MB Kongsberg multibeam vendor format
0336_20130915_201301_revelle.all.mb58.gz 36.17MB Kongsberg multibeam vendor format
0337_20130915_204300_revelle.all.mb58.gz 37.33MB Kongsberg multibeam vendor format
0338_20130915_211255_revelle.all.mb58.gz 37.70MB Kongsberg multibeam vendor format
0339_20130915_214253_revelle.all.mb58.gz 39.11MB Kongsberg multibeam vendor format
0340_20130915_221255_revelle.all.mb58.gz 40.72MB Kongsberg multibeam vendor format
0341_20130915_224253_revelle.all.mb58.gz 41.77MB Kongsberg multibeam vendor format
0342_20130915_231254_revelle.all.mb58.gz 41.18MB Kongsberg multibeam vendor format
0343_20130915_234256_revelle.all.mb58.gz 39.83MB Kongsberg multibeam vendor format
0344_20130916_001253_revelle.all.mb58.gz 38.51MB Kongsberg multibeam vendor format
0345_20130916_004258_revelle.all.mb58.gz 37.44MB Kongsberg multibeam vendor format
0346_20130916_011252_revelle.all.mb58.gz 38.96MB Kongsberg multibeam vendor format
0347_20130916_014254_revelle.all.mb58.gz 40.40MB Kongsberg multibeam vendor format
0348_20130916_021255_revelle.all.mb58.gz 41.52MB Kongsberg multibeam vendor format
0349_20130916_024251_revelle.all.mb58.gz 39.82MB Kongsberg multibeam vendor format
0350_20130916_031251_revelle.all.mb58.gz 39.45MB Kongsberg multibeam vendor format
0351_20130916_034251_revelle.all.mb58.gz 40.00MB Kongsberg multibeam vendor format
0352_20130916_041252_revelle.all.mb58.gz 39.21MB Kongsberg multibeam vendor format
0353_20130916_044253_revelle.all.mb58.gz 39.03MB Kongsberg multibeam vendor format
0354_20130916_051250_revelle.all.mb58.gz 39.46MB Kongsberg multibeam vendor format
0355_20130916_054254_revelle.all.mb58.gz 38.76MB Kongsberg multibeam vendor format
0356_20130916_061252_revelle.all.mb58.gz 38.77MB Kongsberg multibeam vendor format
0357_20130916_064253_revelle.all.mb58.gz 38.87MB Kongsberg multibeam vendor format
0358_20130916_071250_revelle.all.mb58.gz 38.85MB Kongsberg multibeam vendor format
0359_20130916_074254_revelle.all.mb58.gz 38.40MB Kongsberg multibeam vendor format
0360_20130916_081252_revelle.all.mb58.gz 37.78MB Kongsberg multibeam vendor format
0361_20130916_084253_revelle.all.mb58.gz 38.37MB Kongsberg multibeam vendor format
0362_20130916_091250_revelle.all.mb58.gz 38.72MB Kongsberg multibeam vendor format
0363_20130916_094251_revelle.all.mb58.gz 38.26MB Kongsberg multibeam vendor format
0364_20130916_101249_revelle.all.mb58.gz 38.09MB Kongsberg multibeam vendor format
0365_20130916_104254_revelle.all.mb58.gz 39.50MB Kongsberg multibeam vendor format
0366_20130916_111249_revelle.all.mb58.gz 41.92MB Kongsberg multibeam vendor format
0367_20130916_114251_revelle.all.mb58.gz 46.50MB Kongsberg multibeam vendor format
0368_20130916_121248_revelle.all.mb58.gz 45.86MB Kongsberg multibeam vendor format
0369_20130916_124250_revelle.all.mb58.gz 46.69MB Kongsberg multibeam vendor format
0370_20130916_131249_revelle.all.mb58.gz 44.15MB Kongsberg multibeam vendor format
0371_20130916_134250_revelle.all.mb58.gz 40.93MB Kongsberg multibeam vendor format
0372_20130916_141248_revelle.all.mb58.gz 40.94MB Kongsberg multibeam vendor format
0373_20130916_144251_revelle.all.mb58.gz 40.98MB Kongsberg multibeam vendor format
0374_20130916_151248_revelle.all.mb58.gz 41.07MB Kongsberg multibeam vendor format
0375_20130916_154248_revelle.all.mb58.gz 41.11MB Kongsberg multibeam vendor format
0376_20130916_161250_revelle.all.mb58.gz 41.00MB Kongsberg multibeam vendor format
0377_20130916_164247_revelle.all.mb58.gz 41.03MB Kongsberg multibeam vendor format
0378_20130916_171248_revelle.all.mb58.gz 41.00MB Kongsberg multibeam vendor format
0379_20130916_174247_revelle.all.mb58.gz 41.11MB Kongsberg multibeam vendor format
0380_20130916_181249_revelle.all.mb58.gz 41.10MB Kongsberg multibeam vendor format
0381_20130916_184250_revelle.all.mb58.gz 40.97MB Kongsberg multibeam vendor format
0382_20130916_191248_revelle.all.mb58.gz 41.02MB Kongsberg multibeam vendor format
0383_20130916_194248_revelle.all.mb58.gz 40.99MB Kongsberg multibeam vendor format
0384_20130916_201246_revelle.all.mb58.gz 41.11MB Kongsberg multibeam vendor format
0385_20130916_204248_revelle.all.mb58.gz 41.02MB Kongsberg multibeam vendor format
0386_20130916_211247_revelle.all.mb58.gz 41.13MB Kongsberg multibeam vendor format
0387_20130916_214249_revelle.all.mb58.gz 41.00MB Kongsberg multibeam vendor format
0388_20130916_221246_revelle.all.mb58.gz 40.96MB Kongsberg multibeam vendor format
0389_20130916_224247_revelle.all.mb58.gz 43.09MB Kongsberg multibeam vendor format
0390_20130916_231250_revelle.all.mb58.gz 37.88MB Kongsberg multibeam vendor format
0391_20130916_234254_revelle.all.mb58.gz 29.67MB Kongsberg multibeam vendor format
0392_20130917_001253_revelle.all.mb58.gz 35.22MB Kongsberg multibeam vendor format
0393_20130917_004248_revelle.all.mb58.gz 37.18MB Kongsberg multibeam vendor format
0394_20130917_011250_revelle.all.mb58.gz 32.46MB Kongsberg multibeam vendor format
0395_20130917_014251_revelle.all.mb58.gz 29.50MB Kongsberg multibeam vendor format
0396_20130917_021246_revelle.all.mb58.gz 29.62MB Kongsberg multibeam vendor format
0397_20130917_024251_revelle.all.mb58.gz 29.42MB Kongsberg multibeam vendor format
0398_20130917_031250_revelle.all.mb58.gz 29.48MB Kongsberg multibeam vendor format
0399_20130917_034254_revelle.all.mb58.gz 29.38MB Kongsberg multibeam vendor format
0400_20130917_041252_revelle.all.mb58.gz 29.26MB Kongsberg multibeam vendor format
0401_20130917_044246_revelle.all.mb58.gz 29.51MB Kongsberg multibeam vendor format
0402_20130917_051250_revelle.all.mb58.gz 29.80MB Kongsberg multibeam vendor format
0403_20130917_054246_revelle.all.mb58.gz 36.62MB Kongsberg multibeam vendor format
0404_20130917_061245_revelle.all.mb58.gz 36.45MB Kongsberg multibeam vendor format
0405_20130917_064245_revelle.all.mb58.gz 36.51MB Kongsberg multibeam vendor format
0406_20130917_071247_revelle.all.mb58.gz 30.25MB Kongsberg multibeam vendor format
0407_20130917_074258_revelle.all.mb58.gz 28.79MB Kongsberg multibeam vendor format
0408_20130917_081258_revelle.all.mb58.gz 28.82MB Kongsberg multibeam vendor format
0409_20130917_084258_revelle.all.mb58.gz 28.72MB Kongsberg multibeam vendor format
0410_20130917_091250_revelle.all.mb58.gz 28.78MB Kongsberg multibeam vendor format
0411_20130917_094247_revelle.all.mb58.gz 28.74MB Kongsberg multibeam vendor format
0412_20130917_101246_revelle.all.mb58.gz 29.22MB Kongsberg multibeam vendor format
0413_20130917_104243_revelle.all.mb58.gz 29.43MB Kongsberg multibeam vendor format
0414_20130917_111245_revelle.all.mb58.gz 29.43MB Kongsberg multibeam vendor format
0415_20130917_114250_revelle.all.mb58.gz 29.34MB Kongsberg multibeam vendor format
0416_20130917_121245_revelle.all.mb58.gz 29.40MB Kongsberg multibeam vendor format
0417_20130917_124241_revelle.all.mb58.gz 29.22MB Kongsberg multibeam vendor format
0418_20130917_131244_revelle.all.mb58.gz 29.22MB Kongsberg multibeam vendor format
0419_20130917_134244_revelle.all.mb58.gz 29.26MB Kongsberg multibeam vendor format
0420_20130917_141243_revelle.all.mb58.gz 29.31MB Kongsberg multibeam vendor format
0421_20130917_144245_revelle.all.mb58.gz 29.32MB Kongsberg multibeam vendor format
0422_20130917_151243_revelle.all.mb58.gz 29.42MB Kongsberg multibeam vendor format
0423_20130917_154242_revelle.all.mb58.gz 29.55MB Kongsberg multibeam vendor format
0424_20130917_161249_revelle.all.mb58.gz 29.41MB Kongsberg multibeam vendor format
0425_20130917_164246_revelle.all.mb58.gz 29.42MB Kongsberg multibeam vendor format
0426_20130917_171242_revelle.all.mb58.gz 29.45MB Kongsberg multibeam vendor format
0427_20130917_174241_revelle.all.mb58.gz 29.62MB Kongsberg multibeam vendor format
0428_20130917_181248_revelle.all.mb58.gz 29.40MB Kongsberg multibeam vendor format
0429_20130917_184241_revelle.all.mb58.gz 29.63MB Kongsberg multibeam vendor format
0430_20130917_191250_revelle.all.mb58.gz 29.32MB Kongsberg multibeam vendor format
0431_20130917_194239_revelle.all.mb58.gz 29.55MB Kongsberg multibeam vendor format
0432_20130917_201245_revelle.all.mb58.gz 29.37MB Kongsberg multibeam vendor format
0433_20130917_204239_revelle.all.mb58.gz 29.50MB Kongsberg multibeam vendor format
0434_20130917_211242_revelle.all.mb58.gz 29.53MB Kongsberg multibeam vendor format
0435_20130917_214244_revelle.all.mb58.gz 29.52MB Kongsberg multibeam vendor format
0436_20130917_221240_revelle.all.mb58.gz 29.68MB Kongsberg multibeam vendor format
0437_20130917_224244_revelle.all.mb58.gz 29.65MB Kongsberg multibeam vendor format
0438_20130917_231249_revelle.all.mb58.gz 29.48MB Kongsberg multibeam vendor format
0439_20130917_234242_revelle.all.mb58.gz 29.74MB Kongsberg multibeam vendor format
0440_20130918_001243_revelle.all.mb58.gz 29.88MB Kongsberg multibeam vendor format
0441_20130918_004247_revelle.all.mb58.gz 29.71MB Kongsberg multibeam vendor format
0442_20130918_011243_revelle.all.mb58.gz 29.65MB Kongsberg multibeam vendor format
0443_20130918_014239_revelle.all.mb58.gz 29.75MB Kongsberg multibeam vendor format
0444_20130918_021242_revelle.all.mb58.gz 29.74MB Kongsberg multibeam vendor format
0445_20130918_024240_revelle.all.mb58.gz 29.89MB Kongsberg multibeam vendor format
0446_20130918_031243_revelle.all.mb58.gz 29.86MB Kongsberg multibeam vendor format
0447_20130918_034242_revelle.all.mb58.gz 29.76MB Kongsberg multibeam vendor format
0448_20130918_041236_revelle.all.mb58.gz 29.92MB Kongsberg multibeam vendor format
0449_20130918_044246_revelle.all.mb58.gz 29.83MB Kongsberg multibeam vendor format
0450_20130918_051246_revelle.all.mb58.gz 30.72MB Kongsberg multibeam vendor format
0451_20130918_054242_revelle.all.mb58.gz 29.89MB Kongsberg multibeam vendor format
0452_20130918_061247_revelle.all.mb58.gz 29.79MB Kongsberg multibeam vendor format
0453_20130918_064245_revelle.all.mb58.gz 29.64MB Kongsberg multibeam vendor format
0454_20130918_071237_revelle.all.mb58.gz 29.84MB Kongsberg multibeam vendor format
0455_20130918_074239_revelle.all.mb58.gz 29.72MB Kongsberg multibeam vendor format
0456_20130918_081237_revelle.all.mb58.gz 29.74MB Kongsberg multibeam vendor format
0457_20130918_084235_revelle.all.mb58.gz 29.81MB Kongsberg multibeam vendor format
0458_20130918_091239_revelle.all.mb58.gz 29.67MB Kongsberg multibeam vendor format
0459_20130918_094237_revelle.all.mb58.gz 29.83MB Kongsberg multibeam vendor format
0460_20130918_101244_revelle.all.mb58.gz 29.62MB Kongsberg multibeam vendor format
0461_20130918_104237_revelle.all.mb58.gz 29.70MB Kongsberg multibeam vendor format
0462_20130918_111235_revelle.all.mb58.gz 29.88MB Kongsberg multibeam vendor format
0463_20130918_114243_revelle.all.mb58.gz 29.78MB Kongsberg multibeam vendor format
0464_20130918_121244_revelle.all.mb58.gz 29.70MB Kongsberg multibeam vendor format
0465_20130918_124244_revelle.all.mb58.gz 29.56MB Kongsberg multibeam vendor format
0466_20130918_131234_revelle.all.mb58.gz 29.78MB Kongsberg multibeam vendor format
0467_20130918_134236_revelle.all.mb58.gz 29.76MB Kongsberg multibeam vendor format
0468_20130918_141237_revelle.all.mb58.gz 29.90MB Kongsberg multibeam vendor format
0469_20130918_144244_revelle.all.mb58.gz 29.71MB Kongsberg multibeam vendor format
0470_20130918_151239_revelle.all.mb58.gz 29.78MB Kongsberg multibeam vendor format
0471_20130918_154236_revelle.all.mb58.gz 29.73MB Kongsberg multibeam vendor format
0472_20130918_161234_revelle.all.mb58.gz 29.85MB Kongsberg multibeam vendor format
0473_20130918_164238_revelle.all.mb58.gz 29.81MB Kongsberg multibeam vendor format
0474_20130918_171240_revelle.all.mb58.gz 29.63MB Kongsberg multibeam vendor format
0475_20130918_174232_revelle.all.mb58.gz 29.84MB Kongsberg multibeam vendor format
0476_20130918_181238_revelle.all.mb58.gz 29.70MB Kongsberg multibeam vendor format
0477_20130918_184237_revelle.all.mb58.gz 6.44MB Kongsberg multibeam vendor format
0478_20130918_185519_revelle.all.mb58.gz 29.43MB Kongsberg multibeam vendor format
0479_20130918_192503_revelle.all.mb58.gz 29.65MB Kongsberg multibeam vendor format
0480_20130918_195458_revelle.all.mb58.gz 29.77MB Kongsberg multibeam vendor format
0481_20130918_202459_revelle.all.mb58.gz 29.88MB Kongsberg multibeam vendor format
0482_20130918_205506_revelle.all.mb58.gz 29.78MB Kongsberg multibeam vendor format
0483_20130918_212507_revelle.all.mb58.gz 29.83MB Kongsberg multibeam vendor format
0484_20130918_215507_revelle.all.mb58.gz 30.15MB Kongsberg multibeam vendor format
0485_20130918_222507_revelle.all.mb58.gz 29.49MB Kongsberg multibeam vendor format
0486_20130918_225502_revelle.all.mb58.gz 29.51MB Kongsberg multibeam vendor format
0487_20130918_232508_revelle.all.mb58.gz 29.26MB Kongsberg multibeam vendor format
0488_20130918_235506_revelle.all.mb58.gz 29.18MB Kongsberg multibeam vendor format
0489_20130919_002501_revelle.all.mb58.gz 29.32MB Kongsberg multibeam vendor format
0490_20130919_005509_revelle.all.mb58.gz 29.04MB Kongsberg multibeam vendor format
0491_20130919_012502_revelle.all.mb58.gz 28.97MB Kongsberg multibeam vendor format
0492_20130919_015457_revelle.all.mb58.gz 29.42MB Kongsberg multibeam vendor format
0493_20130919_022510_revelle.all.mb58.gz 29.17MB Kongsberg multibeam vendor format
0494_20130919_025504_revelle.all.mb58.gz 29.34MB Kongsberg multibeam vendor format
0495_20130919_032508_revelle.all.mb58.gz 29.16MB Kongsberg multibeam vendor format
0496_20130919_035502_revelle.all.mb58.gz 29.27MB Kongsberg multibeam vendor format
0497_20130919_042507_revelle.all.mb58.gz 29.04MB Kongsberg multibeam vendor format
0498_20130919_045506_revelle.all.mb58.gz 29.14MB Kongsberg multibeam vendor format
0499_20130919_052506_revelle.all.mb58.gz 29.12MB Kongsberg multibeam vendor format
0500_20130919_055502_revelle.all.mb58.gz 29.05MB Kongsberg multibeam vendor format
0501_20130919_062455_revelle.all.mb58.gz 29.26MB Kongsberg multibeam vendor format
0502_20130919_065500_revelle.all.mb58.gz 29.32MB Kongsberg multibeam vendor format
0503_20130919_072508_revelle.all.mb58.gz 29.07MB Kongsberg multibeam vendor format
0504_20130919_075500_revelle.all.mb58.gz 29.12MB Kongsberg multibeam vendor format
0505_20130919_082456_revelle.all.mb58.gz 29.26MB Kongsberg multibeam vendor format
0506_20130919_085505_revelle.all.mb58.gz 29.02MB Kongsberg multibeam vendor format
0507_20130919_092455_revelle.all.mb58.gz 29.32MB Kongsberg multibeam vendor format
0508_20130919_095506_revelle.all.mb58.gz 29.10MB Kongsberg multibeam vendor format
0509_20130919_102504_revelle.all.mb58.gz 29.13MB Kongsberg multibeam vendor format
0510_20130919_105502_revelle.all.mb58.gz 29.12MB Kongsberg multibeam vendor format
0511_20130919_112457_revelle.all.mb58.gz 29.28MB Kongsberg multibeam vendor format
0512_20130919_115502_revelle.all.mb58.gz 29.17MB Kongsberg multibeam vendor format
0513_20130919_122459_revelle.all.mb58.gz 29.22MB Kongsberg multibeam vendor format
0514_20130919_125500_revelle.all.mb58.gz 29.32MB Kongsberg multibeam vendor format
0515_20130919_132506_revelle.all.mb58.gz 29.21MB Kongsberg multibeam vendor format
0516_20130919_135505_revelle.all.mb58.gz 29.14MB Kongsberg multibeam vendor format
0517_20130919_142501_revelle.all.mb58.gz 29.13MB Kongsberg multibeam vendor format
0518_20130919_145453_revelle.all.mb58.gz 29.25MB Kongsberg multibeam vendor format
0519_20130919_152453_revelle.all.mb58.gz 29.43MB Kongsberg multibeam vendor format
0520_20130919_155506_revelle.all.mb58.gz 29.11MB Kongsberg multibeam vendor format
0521_20130919_162458_revelle.all.mb58.gz 29.35MB Kongsberg multibeam vendor format
0522_20130919_165506_revelle.all.mb58.gz 29.10MB Kongsberg multibeam vendor format
0523_20130919_172458_revelle.all.mb58.gz 29.15MB Kongsberg multibeam vendor format
0524_20130919_175452_revelle.all.mb58.gz 29.50MB Kongsberg multibeam vendor format
0525_20130919_182500_revelle.all.mb58.gz 29.28MB Kongsberg multibeam vendor format
0526_20130919_185456_revelle.all.mb58.gz 29.48MB Kongsberg multibeam vendor format
0527_20130919_192456_revelle.all.mb58.gz 29.58MB Kongsberg multibeam vendor format
0528_20130919_195504_revelle.all.mb58.gz 29.22MB Kongsberg multibeam vendor format
0529_20130919_202451_revelle.all.mb58.gz 29.79MB Kongsberg multibeam vendor format
0530_20130919_205501_revelle.all.mb58.gz 29.72MB Kongsberg multibeam vendor format
0531_20130919_212452_revelle.all.mb58.gz 29.75MB Kongsberg multibeam vendor format
0532_20130919_215459_revelle.all.mb58.gz 30.54MB Kongsberg multibeam vendor format
0533_20130919_222452_revelle.all.mb58.gz 29.60MB Kongsberg multibeam vendor format
0534_20130919_225459_revelle.all.mb58.gz 29.45MB Kongsberg multibeam vendor format
0535_20130919_232450_revelle.all.mb58.gz 29.83MB Kongsberg multibeam vendor format
0536_20130919_235453_revelle.all.mb58.gz 35.79MB Kongsberg multibeam vendor format
0537_20130920_002454_revelle.all.mb58.gz 36.14MB Kongsberg multibeam vendor format
0538_20130920_005453_revelle.all.mb58.gz 36.54MB Kongsberg multibeam vendor format
0539_20130920_012451_revelle.all.mb58.gz 36.85MB Kongsberg multibeam vendor format
0540_20130920_015457_revelle.all.mb58.gz 36.54MB Kongsberg multibeam vendor format
0541_20130920_022457_revelle.all.mb58.gz 36.24MB Kongsberg multibeam vendor format
0542_20130920_025451_revelle.all.mb58.gz 36.23MB Kongsberg multibeam vendor format
0543_20130920_032450_revelle.all.mb58.gz 36.40MB Kongsberg multibeam vendor format
0544_20130920_035450_revelle.all.mb58.gz 36.68MB Kongsberg multibeam vendor format
0545_20130920_042448_revelle.all.mb58.gz 36.46MB Kongsberg multibeam vendor format
0546_20130920_045457_revelle.all.mb58.gz 36.38MB Kongsberg multibeam vendor format
0547_20130920_052457_revelle.all.mb58.gz 36.40MB Kongsberg multibeam vendor format
0548_20130920_055455_revelle.all.mb58.gz 36.34MB Kongsberg multibeam vendor format
0549_20130920_062454_revelle.all.mb58.gz 36.04MB Kongsberg multibeam vendor format
0550_20130920_065453_revelle.all.mb58.gz 36.17MB Kongsberg multibeam vendor format
0551_20130920_072453_revelle.all.mb58.gz 35.78MB Kongsberg multibeam vendor format
0552_20130920_075449_revelle.all.mb58.gz 36.17MB Kongsberg multibeam vendor format
0553_20130920_082452_revelle.all.mb58.gz 36.13MB Kongsberg multibeam vendor format
0554_20130920_085453_revelle.all.mb58.gz 36.16MB Kongsberg multibeam vendor format
0555_20130920_092455_revelle.all.mb58.gz 36.47MB Kongsberg multibeam vendor format
0556_20130920_095452_revelle.all.mb58.gz 36.48MB Kongsberg multibeam vendor format
0557_20130920_102455_revelle.all.mb58.gz 35.99MB Kongsberg multibeam vendor format
0558_20130920_105446_revelle.all.mb58.gz 36.41MB Kongsberg multibeam vendor format
0559_20130920_112452_revelle.all.mb58.gz 36.27MB Kongsberg multibeam vendor format
0560_20130920_115452_revelle.all.mb58.gz 36.22MB Kongsberg multibeam vendor format
0561_20130920_122449_revelle.all.mb58.gz 36.49MB Kongsberg multibeam vendor format
0562_20130920_125454_revelle.all.mb58.gz 36.25MB Kongsberg multibeam vendor format
0563_20130920_132447_revelle.all.mb58.gz 36.29MB Kongsberg multibeam vendor format
0564_20130920_135445_revelle.all.mb58.gz 36.19MB Kongsberg multibeam vendor format
0565_20130920_142448_revelle.all.mb58.gz 36.21MB Kongsberg multibeam vendor format
0566_20130920_145449_revelle.all.mb58.gz 36.07MB Kongsberg multibeam vendor format
0567_20130920_152452_revelle.all.mb58.gz 12.44MB Kongsberg multibeam vendor format
0568_20130920_153539_revelle.all.mb58.gz 246.8KB Kongsberg multibeam vendor format
0569_20130920_153554_revelle.all.mb58.gz 3.36MB Kongsberg multibeam vendor format
0570_20130920_153931_revelle.all.mb58.gz 35.50MB Kongsberg multibeam vendor format
0571_20130920_160912_revelle.all.mb58.gz 36.22MB Kongsberg multibeam vendor format
0572_20130920_163918_revelle.all.mb58.gz 35.97MB Kongsberg multibeam vendor format
0573_20130920_170914_revelle.all.mb58.gz 36.19MB Kongsberg multibeam vendor format
0574_20130920_173917_revelle.all.mb58.gz 36.02MB Kongsberg multibeam vendor format
0575_20130920_180913_revelle.all.mb58.gz 36.07MB Kongsberg multibeam vendor format
0576_20130920_183912_revelle.all.mb58.gz 36.21MB Kongsberg multibeam vendor format
0577_20130920_190917_revelle.all.mb58.gz 35.98MB Kongsberg multibeam vendor format
0578_20130920_193913_revelle.all.mb58.gz 36.38MB Kongsberg multibeam vendor format
0579_20130920_200913_revelle.all.mb58.gz 36.02MB Kongsberg multibeam vendor format
0580_20130920_203909_revelle.all.mb58.gz 36.14MB Kongsberg multibeam vendor format
0581_20130920_210917_revelle.all.mb58.gz 35.91MB Kongsberg multibeam vendor format
0582_20130920_213911_revelle.all.mb58.gz 36.07MB Kongsberg multibeam vendor format
0583_20130920_220909_revelle.all.mb58.gz 36.29MB Kongsberg multibeam vendor format
0584_20130920_223916_revelle.all.mb58.gz 36.01MB Kongsberg multibeam vendor format
0585_20130920_230910_revelle.all.mb58.gz 36.03MB Kongsberg multibeam vendor format
0586_20130920_233910_revelle.all.mb58.gz 35.93MB Kongsberg multibeam vendor format
0587_20130921_000907_revelle.all.mb58.gz 36.16MB Kongsberg multibeam vendor format
0588_20130921_003912_revelle.all.mb58.gz 36.16MB Kongsberg multibeam vendor format
0589_20130921_010911_revelle.all.mb58.gz 36.13MB Kongsberg multibeam vendor format
0590_20130921_013911_revelle.all.mb58.gz 36.01MB Kongsberg multibeam vendor format
0591_20130921_020911_revelle.all.mb58.gz 35.94MB Kongsberg multibeam vendor format
0592_20130921_023906_revelle.all.mb58.gz 36.08MB Kongsberg multibeam vendor format
0593_20130921_030909_revelle.all.mb58.gz 36.24MB Kongsberg multibeam vendor format
0594_20130921_033908_revelle.all.mb58.gz 36.26MB Kongsberg multibeam vendor format
0595_20130921_040907_revelle.all.mb58.gz 36.26MB Kongsberg multibeam vendor format
0596_20130921_043912_revelle.all.mb58.gz 36.08MB Kongsberg multibeam vendor format
0597_20130921_050911_revelle.all.mb58.gz 36.27MB Kongsberg multibeam vendor format
0598_20130921_053907_revelle.all.mb58.gz 36.03MB Kongsberg multibeam vendor format
0599_20130921_060905_revelle.all.mb58.gz 36.08MB Kongsberg multibeam vendor format
0600_20130921_063913_revelle.all.mb58.gz 36.09MB Kongsberg multibeam vendor format
0601_20130921_070908_revelle.all.mb58.gz 36.35MB Kongsberg multibeam vendor format
0602_20130921_073910_revelle.all.mb58.gz 36.29MB Kongsberg multibeam vendor format
0603_20130921_080913_revelle.all.mb58.gz 36.16MB Kongsberg multibeam vendor format
0604_20130921_083911_revelle.all.mb58.gz 35.98MB Kongsberg multibeam vendor format
0605_20130921_090905_revelle.all.mb58.gz 36.22MB Kongsberg multibeam vendor format
0606_20130921_093904_revelle.all.mb58.gz 36.36MB Kongsberg multibeam vendor format
0607_20130921_100911_revelle.all.mb58.gz 36.11MB Kongsberg multibeam vendor format
0608_20130921_103911_revelle.all.mb58.gz 35.98MB Kongsberg multibeam vendor format
0609_20130921_110908_revelle.all.mb58.gz 36.12MB Kongsberg multibeam vendor format
0610_20130921_113906_revelle.all.mb58.gz 36.31MB Kongsberg multibeam vendor format
0611_20130921_120908_revelle.all.mb58.gz 36.19MB Kongsberg multibeam vendor format
0612_20130921_123904_revelle.all.mb58.gz 36.24MB Kongsberg multibeam vendor format
0613_20130921_130907_revelle.all.mb58.gz 35.89MB Kongsberg multibeam vendor format
0614_20130921_133903_revelle.all.mb58.gz 36.04MB Kongsberg multibeam vendor format
0615_20130921_140905_revelle.all.mb58.gz 36.17MB Kongsberg multibeam vendor format
0616_20130921_143903_revelle.all.mb58.gz 36.18MB Kongsberg multibeam vendor format
0617_20130921_150906_revelle.all.mb58.gz 36.14MB Kongsberg multibeam vendor format
0618_20130921_153905_revelle.all.mb58.gz 36.07MB Kongsberg multibeam vendor format
0619_20130921_160906_revelle.all.mb58.gz 36.15MB Kongsberg multibeam vendor format
0620_20130921_163905_revelle.all.mb58.gz 36.07MB Kongsberg multibeam vendor format
0621_20130921_170906_revelle.all.mb58.gz 35.91MB Kongsberg multibeam vendor format
0622_20130921_173902_revelle.all.mb58.gz 36.24MB Kongsberg multibeam vendor format
0623_20130921_180904_revelle.all.mb58.gz 36.15MB Kongsberg multibeam vendor format
0624_20130921_183906_revelle.all.mb58.gz 36.08MB Kongsberg multibeam vendor format
0625_20130921_190906_revelle.all.mb58.gz 36.20MB Kongsberg multibeam vendor format
0626_20130921_193906_revelle.all.mb58.gz 35.84MB Kongsberg multibeam vendor format
0627_20130921_200904_revelle.all.mb58.gz 36.30MB Kongsberg multibeam vendor format
0628_20130921_203901_revelle.all.mb58.gz 36.60MB Kongsberg multibeam vendor format
0629_20130921_210906_revelle.all.mb58.gz 3.10MB Kongsberg multibeam vendor format
0630_20130921_211627_revelle.all.mb58.gz 7.09MB Kongsberg multibeam vendor format
0631_20130921_212306_revelle.all.mb58.gz 35.71MB Kongsberg multibeam vendor format
0632_20130921_215251_revelle.all.mb58.gz 36.11MB Kongsberg multibeam vendor format
0633_20130921_222246_revelle.all.mb58.gz 34.57MB Kongsberg multibeam vendor format
0634_20130921_225254_revelle.all.mb58.gz 29.07MB Kongsberg multibeam vendor format
0635_20130921_232245_revelle.all.mb58.gz 31.70MB Kongsberg multibeam vendor format
0636_20130921_235247_revelle.all.mb58.gz 35.69MB Kongsberg multibeam vendor format
0637_20130922_002245_revelle.all.mb58.gz 29.37MB Kongsberg multibeam vendor format
0638_20130922_005248_revelle.all.mb58.gz 29.42MB Kongsberg multibeam vendor format
0639_20130922_012304_revelle.all.mb58.gz 28.98MB Kongsberg multibeam vendor format
0640_20130922_015311_revelle.all.mb58.gz 28.27MB Kongsberg multibeam vendor format
0641_20130922_022312_revelle.all.mb58.gz 28.24MB Kongsberg multibeam vendor format
0642_20130922_025303_revelle.all.mb58.gz 28.32MB Kongsberg multibeam vendor format
0643_20130922_032310_revelle.all.mb58.gz 28.89MB Kongsberg multibeam vendor format
0644_20130922_035254_revelle.all.mb58.gz 29.39MB Kongsberg multibeam vendor format
0645_20130922_042255_revelle.all.mb58.gz 29.67MB Kongsberg multibeam vendor format
0646_20130922_045255_revelle.all.mb58.gz 29.54MB Kongsberg multibeam vendor format
0647_20130922_052255_revelle.all.mb58.gz 28.82MB Kongsberg multibeam vendor format
0648_20130922_055252_revelle.all.mb58.gz 29.30MB Kongsberg multibeam vendor format
0649_20130922_062305_revelle.all.mb58.gz 28.51MB Kongsberg multibeam vendor format
0650_20130922_065258_revelle.all.mb58.gz 29.15MB Kongsberg multibeam vendor format
0651_20130922_072258_revelle.all.mb58.gz 29.00MB Kongsberg multibeam vendor format
0652_20130922_075254_revelle.all.mb58.gz 28.17MB Kongsberg multibeam vendor format
0653_20130922_082251_revelle.all.mb58.gz 29.47MB Kongsberg multibeam vendor format
0654_20130922_085301_revelle.all.mb58.gz 27.99MB Kongsberg multibeam vendor format
0655_20130922_092252_revelle.all.mb58.gz 29.52MB Kongsberg multibeam vendor format
0656_20130922_095257_revelle.all.mb58.gz 29.01MB Kongsberg multibeam vendor format
0657_20130922_102257_revelle.all.mb58.gz 28.68MB Kongsberg multibeam vendor format
0658_20130922_105257_revelle.all.mb58.gz 28.40MB Kongsberg multibeam vendor format
0659_20130922_112256_revelle.all.mb58.gz 28.77MB Kongsberg multibeam vendor format
0660_20130922_115252_revelle.all.mb58.gz 28.16MB Kongsberg multibeam vendor format
0661_20130922_122302_revelle.all.mb58.gz 28.33MB Kongsberg multibeam vendor format
0662_20130922_125250_revelle.all.mb58.gz 29.26MB Kongsberg multibeam vendor format
0663_20130922_132301_revelle.all.mb58.gz 29.37MB Kongsberg multibeam vendor format
0664_20130922_135300_revelle.all.mb58.gz 29.35MB Kongsberg multibeam vendor format
0665_20130922_142255_revelle.all.mb58.gz 29.54MB Kongsberg multibeam vendor format
0666_20130922_145253_revelle.all.mb58.gz 29.47MB Kongsberg multibeam vendor format
0667_20130922_152254_revelle.all.mb58.gz 29.57MB Kongsberg multibeam vendor format
0668_20130922_155251_revelle.all.mb58.gz 29.66MB Kongsberg multibeam vendor format
0669_20130922_162253_revelle.all.mb58.gz 29.72MB Kongsberg multibeam vendor format
0670_20130922_165255_revelle.all.mb58.gz 29.75MB Kongsberg multibeam vendor format
0671_20130922_172258_revelle.all.mb58.gz 29.66MB Kongsberg multibeam vendor format
0672_20130922_175258_revelle.all.mb58.gz 29.55MB Kongsberg multibeam vendor format
0673_20130922_182252_revelle.all.mb58.gz 29.62MB Kongsberg multibeam vendor format
0674_20130922_185256_revelle.all.mb58.gz 32.12MB Kongsberg multibeam vendor format
0675_20130922_192252_revelle.all.mb58.gz 35.17MB Kongsberg multibeam vendor format
0676_20130922_195256_revelle.all.mb58.gz 32.77MB Kongsberg multibeam vendor format
0677_20130922_202253_revelle.all.mb58.gz 34.89MB Kongsberg multibeam vendor format
0678_20130922_205247_revelle.all.mb58.gz 35.25MB Kongsberg multibeam vendor format
0679_20130922_212256_revelle.all.mb58.gz 35.31MB Kongsberg multibeam vendor format
0680_20130922_215253_revelle.all.mb58.gz 35.14MB Kongsberg multibeam vendor format
0681_20130922_222246_revelle.all.mb58.gz 35.43MB Kongsberg multibeam vendor format
0682_20130922_225258_revelle.all.mb58.gz 35.04MB Kongsberg multibeam vendor format
0683_20130922_232249_revelle.all.mb58.gz 35.25MB Kongsberg multibeam vendor format
0684_20130922_235255_revelle.all.mb58.gz 35.10MB Kongsberg multibeam vendor format
0685_20130923_002249_revelle.all.mb58.gz 35.50MB Kongsberg multibeam vendor format
0686_20130923_005253_revelle.all.mb58.gz 34.57MB Kongsberg multibeam vendor format
0687_20130923_012249_revelle.all.mb58.gz 34.61MB Kongsberg multibeam vendor format
0688_20130923_015253_revelle.all.mb58.gz 34.58MB Kongsberg multibeam vendor format
0689_20130923_022246_revelle.all.mb58.gz 35.15MB Kongsberg multibeam vendor format
0690_20130923_025248_revelle.all.mb58.gz 35.11MB Kongsberg multibeam vendor format
0691_20130923_032250_revelle.all.mb58.gz 35.07MB Kongsberg multibeam vendor format
0692_20130923_035246_revelle.all.mb58.gz 34.93MB Kongsberg multibeam vendor format
0693_20130923_042247_revelle.all.mb58.gz 35.06MB Kongsberg multibeam vendor format
0694_20130923_045252_revelle.all.mb58.gz 34.82MB Kongsberg multibeam vendor format
0695_20130923_052247_revelle.all.mb58.gz 35.08MB Kongsberg multibeam vendor format
0696_20130923_055252_revelle.all.mb58.gz 35.27MB Kongsberg multibeam vendor format
0697_20130923_062252_revelle.all.mb58.gz 35.34MB Kongsberg multibeam vendor format
0698_20130923_065250_revelle.all.mb58.gz 35.38MB Kongsberg multibeam vendor format
0699_20130923_072250_revelle.all.mb58.gz 35.51MB Kongsberg multibeam vendor format
0700_20130923_075254_revelle.all.mb58.gz 35.08MB Kongsberg multibeam vendor format
0701_20130923_082246_revelle.all.mb58.gz 35.35MB Kongsberg multibeam vendor format
0702_20130923_085251_revelle.all.mb58.gz 35.27MB Kongsberg multibeam vendor format
0703_20130923_092250_revelle.all.mb58.gz 35.29MB Kongsberg multibeam vendor format
0704_20130923_095248_revelle.all.mb58.gz 35.28MB Kongsberg multibeam vendor format
0705_20130923_102244_revelle.all.mb58.gz 35.38MB Kongsberg multibeam vendor format
0706_20130923_105243_revelle.all.mb58.gz 35.56MB Kongsberg multibeam vendor format
0707_20130923_112251_revelle.all.mb58.gz 35.50MB Kongsberg multibeam vendor format
0708_20130923_115251_revelle.all.mb58.gz 35.16MB Kongsberg multibeam vendor format
0709_20130923_122250_revelle.all.mb58.gz 35.01MB Kongsberg multibeam vendor format
0710_20130923_125247_revelle.all.mb58.gz 35.38MB Kongsberg multibeam vendor format
0711_20130923_132248_revelle.all.mb58.gz 35.42MB Kongsberg multibeam vendor format
0712_20130923_135247_revelle.all.mb58.gz 35.31MB Kongsberg multibeam vendor format
0713_20130923_142250_revelle.all.mb58.gz 35.26MB Kongsberg multibeam vendor format
0714_20130923_145242_revelle.all.mb58.gz 35.41MB Kongsberg multibeam vendor format
0715_20130923_152241_revelle.all.mb58.gz 35.42MB Kongsberg multibeam vendor format
0716_20130923_155244_revelle.all.mb58.gz 35.38MB Kongsberg multibeam vendor format
0717_20130923_162247_revelle.all.mb58.gz 35.42MB Kongsberg multibeam vendor format
0718_20130923_165250_revelle.all.mb58.gz 34.88MB Kongsberg multibeam vendor format
0719_20130923_172243_revelle.all.mb58.gz 34.93MB Kongsberg multibeam vendor format
0720_20130923_175242_revelle.all.mb58.gz 35.08MB Kongsberg multibeam vendor format
0721_20130923_182249_revelle.all.mb58.gz 34.81MB Kongsberg multibeam vendor format
0722_20130923_185240_revelle.all.mb58.gz 35.08MB Kongsberg multibeam vendor format
0723_20130923_192243_revelle.all.mb58.gz 35.10MB Kongsberg multibeam vendor format
0724_20130923_195242_revelle.all.mb58.gz 35.52MB Kongsberg multibeam vendor format
0725_20130923_202245_revelle.all.mb58.gz 35.32MB Kongsberg multibeam vendor format
0726_20130923_205248_revelle.all.mb58.gz 35.39MB Kongsberg multibeam vendor format
0727_20130923_212244_revelle.all.mb58.gz 34.17MB Kongsberg multibeam vendor format
0728_20130923_215245_revelle.all.mb58.gz 35.00MB Kongsberg multibeam vendor format
0729_20130923_222239_revelle.all.mb58.gz 34.49MB Kongsberg multibeam vendor format
0730_20130923_225239_revelle.all.mb58.gz 34.36MB Kongsberg multibeam vendor format
0731_20130923_232243_revelle.all.mb58.gz 34.42MB Kongsberg multibeam vendor format
0732_20130923_235246_revelle.all.mb58.gz 32.93MB Kongsberg multibeam vendor format
0733_20130924_002239_revelle.all.mb58.gz 34.61MB Kongsberg multibeam vendor format
0734_20130924_005246_revelle.all.mb58.gz 33.25MB Kongsberg multibeam vendor format
0735_20130924_012239_revelle.all.mb58.gz 35.52MB Kongsberg multibeam vendor format
0736_20130924_015243_revelle.all.mb58.gz 35.75MB Kongsberg multibeam vendor format
0737_20130924_022243_revelle.all.mb58.gz 36.08MB Kongsberg multibeam vendor format
0738_20130924_025240_revelle.all.mb58.gz 35.73MB Kongsberg multibeam vendor format
0739_20130924_032241_revelle.all.mb58.gz 36.27MB Kongsberg multibeam vendor format
0740_20130924_035239_revelle.all.mb58.gz 34.98MB Kongsberg multibeam vendor format
0741_20130924_042245_revelle.all.mb58.gz 34.13MB Kongsberg multibeam vendor format
0742_20130924_045243_revelle.all.mb58.gz 31.76MB Kongsberg multibeam vendor format
0743_20130924_052238_revelle.all.mb58.gz 31.33MB Kongsberg multibeam vendor format
0744_20130924_055243_revelle.all.mb58.gz 17.29MB Kongsberg multibeam vendor format
0745_20130924_061018_revelle.all.mb58.gz 27.92MB Kongsberg multibeam vendor format
0746_20130924_063957_revelle.all.mb58.gz 28.35MB Kongsberg multibeam vendor format
0747_20130924_071006_revelle.all.mb58.gz 26.81MB Kongsberg multibeam vendor format
0748_20130924_073927_revelle.all.mb58.gz 27.62MB Kongsberg multibeam vendor format
0749_20130924_080916_revelle.all.mb58.gz 28.21MB Kongsberg multibeam vendor format
0750_20130924_083918_revelle.all.mb58.gz 28.88MB Kongsberg multibeam vendor format
0751_20130924_090933_revelle.all.mb58.gz 28.94MB Kongsberg multibeam vendor format
0752_20130924_093919_revelle.all.mb58.gz 29.65MB Kongsberg multibeam vendor format
0753_20130924_100916_revelle.all.mb58.gz 32.93MB Kongsberg multibeam vendor format
0754_20130924_103921_revelle.all.mb58.gz 35.22MB Kongsberg multibeam vendor format
0755_20130924_110920_revelle.all.mb58.gz 35.87MB Kongsberg multibeam vendor format
0756_20130924_113922_revelle.all.mb58.gz 36.21MB Kongsberg multibeam vendor format
0757_20130924_120918_revelle.all.mb58.gz 36.50MB Kongsberg multibeam vendor format
0758_20130924_123917_revelle.all.mb58.gz 34.60MB Kongsberg multibeam vendor format
0759_20130924_130923_revelle.all.mb58.gz 29.72MB Kongsberg multibeam vendor format
0760_20130924_133921_revelle.all.mb58.gz 29.61MB Kongsberg multibeam vendor format
0761_20130924_140915_revelle.all.mb58.gz 29.70MB Kongsberg multibeam vendor format
0762_20130924_143914_revelle.all.mb58.gz 29.75MB Kongsberg multibeam vendor format
0763_20130924_150918_revelle.all.mb58.gz 29.63MB Kongsberg multibeam vendor format
0764_20130924_153919_revelle.all.mb58.gz 29.53MB Kongsberg multibeam vendor format
0765_20130924_160915_revelle.all.mb58.gz 29.79MB Kongsberg multibeam vendor format
0766_20130924_163925_revelle.all.mb58.gz 29.42MB Kongsberg multibeam vendor format
0767_20130924_170913_revelle.all.mb58.gz 29.79MB Kongsberg multibeam vendor format
0768_20130924_173922_revelle.all.mb58.gz 29.56MB Kongsberg multibeam vendor format
0769_20130924_180916_revelle.all.mb58.gz 29.64MB Kongsberg multibeam vendor format
0770_20130924_183917_revelle.all.mb58.gz 29.70MB Kongsberg multibeam vendor format
0771_20130924_190922_revelle.all.mb58.gz 29.69MB Kongsberg multibeam vendor format
0772_20130924_193924_revelle.all.mb58.gz 29.60MB Kongsberg multibeam vendor format
0773_20130924_200922_revelle.all.mb58.gz 20.83MB Kongsberg multibeam vendor format
0774_20130924_203628_revelle.all.mb58.gz 29.54MB Kongsberg multibeam vendor format
0775_20130924_210625_revelle.all.mb58.gz 29.83MB Kongsberg multibeam vendor format
0776_20130924_213634_revelle.all.mb58.gz 29.65MB Kongsberg multibeam vendor format
0777_20130924_220634_revelle.all.mb58.gz 29.68MB Kongsberg multibeam vendor format
0778_20130924_223633_revelle.all.mb58.gz 29.43MB Kongsberg multibeam vendor format
0779_20130924_230622_revelle.all.mb58.gz 29.69MB Kongsberg multibeam vendor format
0780_20130924_233624_revelle.all.mb58.gz 29.64MB Kongsberg multibeam vendor format
0781_20130925_000626_revelle.all.mb58.gz 29.60MB Kongsberg multibeam vendor format
0782_20130925_003622_revelle.all.mb58.gz 29.73MB Kongsberg multibeam vendor format
0783_20130925_010626_revelle.all.mb58.gz 29.76MB Kongsberg multibeam vendor format
0784_20130925_013630_revelle.all.mb58.gz 29.73MB Kongsberg multibeam vendor format
0785_20130925_020632_revelle.all.mb58.gz 29.64MB Kongsberg multibeam vendor format
0786_20130925_023632_revelle.all.mb58.gz 29.72MB Kongsberg multibeam vendor format
0787_20130925_030622_revelle.all.mb58.gz 35.06MB Kongsberg multibeam vendor format
0788_20130925_033629_revelle.all.mb58.gz 35.85MB Kongsberg multibeam vendor format
0789_20130925_040631_revelle.all.mb58.gz 35.66MB Kongsberg multibeam vendor format
0790_20130925_043627_revelle.all.mb58.gz 35.68MB Kongsberg multibeam vendor format
0791_20130925_050627_revelle.all.mb58.gz 30.87MB Kongsberg multibeam vendor format
0792_20130925_053626_revelle.all.mb58.gz 29.56MB Kongsberg multibeam vendor format
0793_20130925_060625_revelle.all.mb58.gz 29.03MB Kongsberg multibeam vendor format
0794_20130925_063625_revelle.all.mb58.gz 28.42MB Kongsberg multibeam vendor format
0795_20130925_070631_revelle.all.mb58.gz 28.16MB Kongsberg multibeam vendor format
0796_20130925_073624_revelle.all.mb58.gz 27.88MB Kongsberg multibeam vendor format
0797_20130925_080638_revelle.all.mb58.gz 27.22MB Kongsberg multibeam vendor format
0798_20130925_083626_revelle.all.mb58.gz 18.93MB Kongsberg multibeam vendor format
0799_20130925_090127_revelle.all.mb58.gz 27.84MB Kongsberg multibeam vendor format
0800_20130925_093135_revelle.all.mb58.gz 27.91MB Kongsberg multibeam vendor format
0801_20130925_100122_revelle.all.mb58.gz 31.99MB Kongsberg multibeam vendor format
0802_20130925_103123_revelle.all.mb58.gz 36.90MB Kongsberg multibeam vendor format
0803_20130925_110129_revelle.all.mb58.gz 30.64MB Kongsberg multibeam vendor format
0804_20130925_113125_revelle.all.mb58.gz 29.65MB Kongsberg multibeam vendor format
0805_20130925_120128_revelle.all.mb58.gz 28.52MB Kongsberg multibeam vendor format
0806_20130925_123119_revelle.all.mb58.gz 29.26MB Kongsberg multibeam vendor format
0807_20130925_130128_revelle.all.mb58.gz 28.24MB Kongsberg multibeam vendor format
0808_20130925_133117_revelle.all.mb58.gz 28.55MB Kongsberg multibeam vendor format
0809_20130925_140122_revelle.all.mb58.gz 30.38MB Kongsberg multibeam vendor format
0810_20130925_143127_revelle.all.mb58.gz 28.51MB Kongsberg multibeam vendor format
0811_20130925_150135_revelle.all.mb58.gz 27.98MB Kongsberg multibeam vendor format
0812_20130925_153120_revelle.all.mb58.gz 28.37MB Kongsberg multibeam vendor format
0813_20130925_160126_revelle.all.mb58.gz 28.26MB Kongsberg multibeam vendor format
0814_20130925_163129_revelle.all.mb58.gz 28.44MB Kongsberg multibeam vendor format
0815_20130925_170130_revelle.all.mb58.gz 28.17MB Kongsberg multibeam vendor format
0816_20130925_173116_revelle.all.mb58.gz 28.75MB Kongsberg multibeam vendor format
0817_20130925_180124_revelle.all.mb58.gz 28.41MB Kongsberg multibeam vendor format
0818_20130925_183130_revelle.all.mb58.gz 28.42MB Kongsberg multibeam vendor format
0819_20130925_190118_revelle.all.mb58.gz 28.63MB Kongsberg multibeam vendor format
0820_20130925_193125_revelle.all.mb58.gz 28.97MB Kongsberg multibeam vendor format
0821_20130925_200132_revelle.all.mb58.gz 28.59MB Kongsberg multibeam vendor format
0822_20130925_203131_revelle.all.mb58.gz 28.52MB Kongsberg multibeam vendor format
0823_20130925_210126_revelle.all.mb58.gz 21.42MB Kongsberg multibeam vendor format
0824_20130926_140105_revelle.all.mb58.gz 8.77MB Kongsberg multibeam vendor format
0825_20130926_142157_revelle.all.mb58.gz 1.86MB Kongsberg multibeam vendor format
0826_20130926_142428_revelle.all.mb58.gz 27.83MB Kongsberg multibeam vendor format
0827_20130926_145423_revelle.all.mb58.gz 27.90MB Kongsberg multibeam vendor format
0828_20130926_152423_revelle.all.mb58.gz 27.95MB Kongsberg multibeam vendor format
0829_20130926_155411_revelle.all.mb58.gz 28.09MB Kongsberg multibeam vendor format
0830_20130926_162409_revelle.all.mb58.gz 28.19MB Kongsberg multibeam vendor format
0831_20130926_165418_revelle.all.mb58.gz 28.02MB Kongsberg multibeam vendor format
0832_20130926_172415_revelle.all.mb58.gz 28.07MB Kongsberg multibeam vendor format
0833_20130926_175413_revelle.all.mb58.gz 28.16MB Kongsberg multibeam vendor format
0834_20130926_182420_revelle.all.mb58.gz 28.24MB Kongsberg multibeam vendor format
0835_20130926_185428_revelle.all.mb58.gz 27.92MB Kongsberg multibeam vendor format
0836_20130926_192414_revelle.all.mb58.gz 28.20MB Kongsberg multibeam vendor format
0837_20130926_195418_revelle.all.mb58.gz 28.20MB Kongsberg multibeam vendor format
0838_20130926_202420_revelle.all.mb58.gz 28.15MB Kongsberg multibeam vendor format
0839_20130926_205422_revelle.all.mb58.gz 27.87MB Kongsberg multibeam vendor format
0840_20130926_212408_revelle.all.mb58.gz 28.24MB Kongsberg multibeam vendor format
0841_20130926_215423_revelle.all.mb58.gz 27.76MB Kongsberg multibeam vendor format
0842_20130926_222410_revelle.all.mb58.gz 28.38MB Kongsberg multibeam vendor format
0843_20130926_225422_revelle.all.mb58.gz 27.90MB Kongsberg multibeam vendor format
0844_20130926_232411_revelle.all.mb58.gz 28.19MB Kongsberg multibeam vendor format
0845_20130926_235409_revelle.all.mb58.gz 28.31MB Kongsberg multibeam vendor format
0846_20130927_002423_revelle.all.mb58.gz 27.99MB Kongsberg multibeam vendor format
0847_20130927_005422_revelle.all.mb58.gz 28.12MB Kongsberg multibeam vendor format
0848_20130927_012413_revelle.all.mb58.gz 28.22MB Kongsberg multibeam vendor format
0849_20130927_015416_revelle.all.mb58.gz 28.32MB Kongsberg multibeam vendor format
0850_20130927_022427_revelle.all.mb58.gz 27.89MB Kongsberg multibeam vendor format
0851_20130927_025424_revelle.all.mb58.gz 27.98MB Kongsberg multibeam vendor format
0852_20130927_032411_revelle.all.mb58.gz 28.33MB Kongsberg multibeam vendor format
0853_20130927_035426_revelle.all.mb58.gz 28.13MB Kongsberg multibeam vendor format
0854_20130927_042426_revelle.all.mb58.gz 27.98MB Kongsberg multibeam vendor format
0855_20130927_045412_revelle.all.mb58.gz 28.44MB Kongsberg multibeam vendor format
0856_20130927_052423_revelle.all.mb58.gz 28.13MB Kongsberg multibeam vendor format
0857_20130927_055418_revelle.all.mb58.gz 28.26MB Kongsberg multibeam vendor format
0858_20130927_062420_revelle.all.mb58.gz 28.34MB Kongsberg multibeam vendor format
0859_20130927_065423_revelle.all.mb58.gz 28.13MB Kongsberg multibeam vendor format
0860_20130927_072416_revelle.all.mb58.gz 28.26MB Kongsberg multibeam vendor format
0861_20130927_075420_revelle.all.mb58.gz 28.03MB Kongsberg multibeam vendor format
0862_20130927_082408_revelle.all.mb58.gz 28.24MB Kongsberg multibeam vendor format
0863_20130927_085406_revelle.all.mb58.gz 28.26MB Kongsberg multibeam vendor format
0864_20130927_092405_revelle.all.mb58.gz 28.35MB Kongsberg multibeam vendor format
0865_20130927_095413_revelle.all.mb58.gz 28.15MB Kongsberg multibeam vendor format
0866_20130927_102405_revelle.all.mb58.gz 28.43MB Kongsberg multibeam vendor format
0867_20130927_105417_revelle.all.mb58.gz 28.13MB Kongsberg multibeam vendor format
0868_20130927_112408_revelle.all.mb58.gz 28.20MB Kongsberg multibeam vendor format
0869_20130927_115403_revelle.all.mb58.gz 28.36MB Kongsberg multibeam vendor format
0870_20130927_122408_revelle.all.mb58.gz 28.32MB Kongsberg multibeam vendor format
0871_20130927_125418_revelle.all.mb58.gz 28.06MB Kongsberg multibeam vendor format
0872_20130927_132407_revelle.all.mb58.gz 28.31MB Kongsberg multibeam vendor format
0873_20130927_135408_revelle.all.mb58.gz 28.49MB Kongsberg multibeam vendor format
0874_20130927_142420_revelle.all.mb58.gz 28.13MB Kongsberg multibeam vendor format
0875_20130927_145410_revelle.all.mb58.gz 28.49MB Kongsberg multibeam vendor format
0876_20130927_152419_revelle.all.mb58.gz 28.11MB Kongsberg multibeam vendor format
0877_20130927_155403_revelle.all.mb58.gz 28.58MB Kongsberg multibeam vendor format
0878_20130927_162414_revelle.all.mb58.gz 28.46MB Kongsberg multibeam vendor format
0879_20130927_165420_revelle.all.mb58.gz 27.77MB Kongsberg multibeam vendor format
0880_20130927_172405_revelle.all.mb58.gz 28.32MB Kongsberg multibeam vendor format
0881_20130927_175407_revelle.all.mb58.gz 28.57MB Kongsberg multibeam vendor format
0882_20130927_182410_revelle.all.mb58.gz 28.32MB Kongsberg multibeam vendor format
0883_20130927_185403_revelle.all.mb58.gz 28.62MB Kongsberg multibeam vendor format
0884_20130927_192410_revelle.all.mb58.gz 28.38MB Kongsberg multibeam vendor format
0885_20130927_195401_revelle.all.mb58.gz 28.47MB Kongsberg multibeam vendor format
0886_20130927_202405_revelle.all.mb58.gz 28.47MB Kongsberg multibeam vendor format
0887_20130927_205410_revelle.all.mb58.gz 28.53MB Kongsberg multibeam vendor format
0888_20130927_212413_revelle.all.mb58.gz 28.39MB Kongsberg multibeam vendor format
0889_20130927_215408_revelle.all.mb58.gz 28.44MB Kongsberg multibeam vendor format
0890_20130927_222406_revelle.all.mb58.gz 28.53MB Kongsberg multibeam vendor format
0891_20130927_225409_revelle.all.mb58.gz 28.44MB Kongsberg multibeam vendor format
0892_20130927_232405_revelle.all.mb58.gz 28.62MB Kongsberg multibeam vendor format
0893_20130927_235416_revelle.all.mb58.gz 28.39MB Kongsberg multibeam vendor format
0894_20130928_002409_revelle.all.mb58.gz 28.56MB Kongsberg multibeam vendor format
0895_20130928_005411_revelle.all.mb58.gz 28.19MB Kongsberg multibeam vendor format
0896_20130928_012406_revelle.all.mb58.gz 28.32MB Kongsberg multibeam vendor format
0897_20130928_015411_revelle.all.mb58.gz 28.13MB Kongsberg multibeam vendor format
0898_20130928_022401_revelle.all.mb58.gz 28.37MB Kongsberg multibeam vendor format
0899_20130928_025405_revelle.all.mb58.gz 28.31MB Kongsberg multibeam vendor format
0900_20130928_032401_revelle.all.mb58.gz 28.65MB Kongsberg multibeam vendor format
0901_20130928_035417_revelle.all.mb58.gz 28.04MB Kongsberg multibeam vendor format
0902_20130928_042402_revelle.all.mb58.gz 28.16MB Kongsberg multibeam vendor format
0903_20130928_045406_revelle.all.mb58.gz 28.23MB Kongsberg multibeam vendor format
0904_20130928_052403_revelle.all.mb58.gz 28.35MB Kongsberg multibeam vendor format
0905_20130928_055400_revelle.all.mb58.gz 28.43MB Kongsberg multibeam vendor format
0906_20130928_062407_revelle.all.mb58.gz 28.70MB Kongsberg multibeam vendor format
0907_20130928_065415_revelle.all.mb58.gz 28.48MB Kongsberg multibeam vendor format
0908_20130928_072410_revelle.all.mb58.gz 28.56MB Kongsberg multibeam vendor format
0909_20130928_075410_revelle.all.mb58.gz 28.64MB Kongsberg multibeam vendor format
0910_20130928_082414_revelle.all.mb58.gz 28.48MB Kongsberg multibeam vendor format
0911_20130928_085359_revelle.all.mb58.gz 29.00MB Kongsberg multibeam vendor format
0912_20130928_092402_revelle.all.mb58.gz 28.94MB Kongsberg multibeam vendor format
0913_20130928_095405_revelle.all.mb58.gz 29.13MB Kongsberg multibeam vendor format
0914_20130928_102407_revelle.all.mb58.gz 29.01MB Kongsberg multibeam vendor format
0915_20130928_105355_revelle.all.mb58.gz 29.34MB Kongsberg multibeam vendor format
0916_20130928_112358_revelle.all.mb58.gz 29.53MB Kongsberg multibeam vendor format
0917_20130928_115408_revelle.all.mb58.gz 29.30MB Kongsberg multibeam vendor format
0918_20130928_122400_revelle.all.mb58.gz 29.34MB Kongsberg multibeam vendor format
0919_20130928_125354_revelle.all.mb58.gz 29.45MB Kongsberg multibeam vendor format
0920_20130928_132356_revelle.all.mb58.gz 29.53MB Kongsberg multibeam vendor format
0921_20130928_135359_revelle.all.mb58.gz 29.58MB Kongsberg multibeam vendor format
0922_20130928_142406_revelle.all.mb58.gz 29.21MB Kongsberg multibeam vendor format
0923_20130928_145354_revelle.all.mb58.gz 29.53MB Kongsberg multibeam vendor format
0924_20130928_152401_revelle.all.mb58.gz 29.44MB Kongsberg multibeam vendor format
0925_20130928_155401_revelle.all.mb58.gz 29.32MB Kongsberg multibeam vendor format
0926_20130928_162356_revelle.all.mb58.gz 29.44MB Kongsberg multibeam vendor format
0927_20130928_165357_revelle.all.mb58.gz 29.53MB Kongsberg multibeam vendor format
0928_20130928_172403_revelle.all.mb58.gz 29.42MB Kongsberg multibeam vendor format
0929_20130928_175403_revelle.all.mb58.gz 29.27MB Kongsberg multibeam vendor format
0930_20130928_182356_revelle.all.mb58.gz 29.51MB Kongsberg multibeam vendor format
0931_20130928_185403_revelle.all.mb58.gz 29.42MB Kongsberg multibeam vendor format
0932_20130928_192405_revelle.all.mb58.gz 29.23MB Kongsberg multibeam vendor format
0933_20130928_195355_revelle.all.mb58.gz 29.43MB Kongsberg multibeam vendor format
0934_20130928_202358_revelle.all.mb58.gz 29.50MB Kongsberg multibeam vendor format
0935_20130928_205405_revelle.all.mb58.gz 29.24MB Kongsberg multibeam vendor format
0936_20130928_212355_revelle.all.mb58.gz 29.48MB Kongsberg multibeam vendor format
0937_20130928_215400_revelle.all.mb58.gz 29.48MB Kongsberg multibeam vendor format
0938_20130928_222405_revelle.all.mb58.gz 29.27MB Kongsberg multibeam vendor format
0939_20130928_225358_revelle.all.mb58.gz 29.50MB Kongsberg multibeam vendor format
0940_20130928_232404_revelle.all.mb58.gz 29.25MB Kongsberg multibeam vendor format
0941_20130928_235354_revelle.all.mb58.gz 29.42MB Kongsberg multibeam vendor format
0942_20130929_002356_revelle.all.mb58.gz 29.37MB Kongsberg multibeam vendor format
0943_20130929_005352_revelle.all.mb58.gz 30.13MB Kongsberg multibeam vendor format
0944_20130929_012435_revelle.all.mb58.gz 29.40MB Kongsberg multibeam vendor format
0945_20130929_015433_revelle.all.mb58.gz 29.42MB Kongsberg multibeam vendor format
0946_20130929_022434_revelle.all.mb58.gz 29.30MB Kongsberg multibeam vendor format
0947_20130929_025429_revelle.all.mb58.gz 29.48MB Kongsberg multibeam vendor format
0948_20130929_032433_revelle.all.mb58.gz 29.50MB Kongsberg multibeam vendor format
0949_20130929_035438_revelle.all.mb58.gz 29.27MB Kongsberg multibeam vendor format
0950_20130929_042432_revelle.all.mb58.gz 29.43MB Kongsberg multibeam vendor format
0951_20130929_045428_revelle.all.mb58.gz 29.62MB Kongsberg multibeam vendor format
0952_20130929_052440_revelle.all.mb58.gz 29.32MB Kongsberg multibeam vendor format
0953_20130929_055435_revelle.all.mb58.gz 29.35MB Kongsberg multibeam vendor format
0954_20130929_062432_revelle.all.mb58.gz 29.52MB Kongsberg multibeam vendor format
0955_20130929_065441_revelle.all.mb58.gz 29.31MB Kongsberg multibeam vendor format
0956_20130929_072437_revelle.all.mb58.gz 29.37MB Kongsberg multibeam vendor format
0957_20130929_075438_revelle.all.mb58.gz 29.45MB Kongsberg multibeam vendor format
0958_20130929_082441_revelle.all.mb58.gz 29.38MB Kongsberg multibeam vendor format
0959_20130929_085439_revelle.all.mb58.gz 29.22MB Kongsberg multibeam vendor format
0960_20130929_092433_revelle.all.mb58.gz 29.50MB Kongsberg multibeam vendor format
0961_20130929_095436_revelle.all.mb58.gz 30.73MB Kongsberg multibeam vendor format
0962_20130929_102431_revelle.all.mb58.gz 30.90MB Kongsberg multibeam vendor format
0963_20130929_105438_revelle.all.mb58.gz 28.97MB Kongsberg multibeam vendor format
0964_20130929_112430_revelle.all.mb58.gz 29.01MB Kongsberg multibeam vendor format
0965_20130929_115437_revelle.all.mb58.gz 28.50MB Kongsberg multibeam vendor format
0966_20130929_122435_revelle.all.mb58.gz 28.07MB Kongsberg multibeam vendor format
0967_20130929_125430_revelle.all.mb58.gz 28.36MB Kongsberg multibeam vendor format
0968_20130929_132451_revelle.all.mb58.gz 27.79MB Kongsberg multibeam vendor format
0969_20130929_135436_revelle.all.mb58.gz 27.95MB Kongsberg multibeam vendor format
0970_20130929_142432_revelle.all.mb58.gz 28.28MB Kongsberg multibeam vendor format
0971_20130929_145439_revelle.all.mb58.gz 28.51MB Kongsberg multibeam vendor format
0972_20130929_152438_revelle.all.mb58.gz 29.01MB Kongsberg multibeam vendor format
0973_20130929_155432_revelle.all.mb58.gz 35.23MB Kongsberg multibeam vendor format
0974_20130929_162428_revelle.all.mb58.gz 38.39MB Kongsberg multibeam vendor format
0975_20130929_165431_revelle.all.mb58.gz 38.12MB Kongsberg multibeam vendor format
0976_20130929_172425_revelle.all.mb58.gz 37.90MB Kongsberg multibeam vendor format
0977_20130929_175429_revelle.all.mb58.gz 38.14MB Kongsberg multibeam vendor format
0978_20130929_182425_revelle.all.mb58.gz 38.11MB Kongsberg multibeam vendor format
0979_20130929_185428_revelle.all.mb58.gz 38.12MB Kongsberg multibeam vendor format
0980_20130929_192425_revelle.all.mb58.gz 38.09MB Kongsberg multibeam vendor format
0981_20130929_195427_revelle.all.mb58.gz 37.89MB Kongsberg multibeam vendor format
0982_20130929_202426_revelle.all.mb58.gz 37.93MB Kongsberg multibeam vendor format
0983_20130929_205424_revelle.all.mb58.gz 37.93MB Kongsberg multibeam vendor format
0984_20130929_212424_revelle.all.mb58.gz 37.97MB Kongsberg multibeam vendor format
0985_20130929_215423_revelle.all.mb58.gz 37.96MB Kongsberg multibeam vendor format
0986_20130929_222424_revelle.all.mb58.gz 38.01MB Kongsberg multibeam vendor format
0987_20130929_225427_revelle.all.mb58.gz 37.90MB Kongsberg multibeam vendor format
0988_20130929_232428_revelle.all.mb58.gz 37.78MB Kongsberg multibeam vendor format
0989_20130929_235423_revelle.all.mb58.gz 38.04MB Kongsberg multibeam vendor format
0990_20130930_002427_revelle.all.mb58.gz 38.00MB Kongsberg multibeam vendor format
0991_20130930_005428_revelle.all.mb58.gz 38.02MB Kongsberg multibeam vendor format
0992_20130930_012426_revelle.all.mb58.gz 38.19MB Kongsberg multibeam vendor format
0993_20130930_015426_revelle.all.mb58.gz 38.18MB Kongsberg multibeam vendor format
0994_20130930_022427_revelle.all.mb58.gz 38.12MB Kongsberg multibeam vendor format
0995_20130930_025428_revelle.all.mb58.gz 38.09MB Kongsberg multibeam vendor format
0996_20130930_032422_revelle.all.mb58.gz 39.81MB Kongsberg multibeam vendor format
0997_20130930_035422_revelle.all.mb58.gz 41.25MB Kongsberg multibeam vendor format
0998_20130930_042422_revelle.all.mb58.gz 42.04MB Kongsberg multibeam vendor format
0999_20130930_045424_revelle.all.mb58.gz 43.46MB Kongsberg multibeam vendor format
1000_20130930_052422_revelle.all.mb58.gz 44.23MB Kongsberg multibeam vendor format
1001_20130930_055421_revelle.all.mb58.gz 43.97MB Kongsberg multibeam vendor format
1002_20130930_062421_revelle.all.mb58.gz 44.52MB Kongsberg multibeam vendor format
1003_20130930_065423_revelle.all.mb58.gz 44.41MB Kongsberg multibeam vendor format
1004_20130930_072420_revelle.all.mb58.gz 44.53MB Kongsberg multibeam vendor format
1005_20130930_075421_revelle.all.mb58.gz 44.48MB Kongsberg multibeam vendor format
1006_20130930_082420_revelle.all.mb58.gz 44.57MB Kongsberg multibeam vendor format
1007_20130930_085421_revelle.all.mb58.gz 44.52MB Kongsberg multibeam vendor format
1008_20130930_092421_revelle.all.mb58.gz 44.65MB Kongsberg multibeam vendor format
1009_20130930_095420_revelle.all.mb58.gz 46.71MB Kongsberg multibeam vendor format
1010_20130930_102420_revelle.all.mb58.gz 50.85MB Kongsberg multibeam vendor format
1011_20130930_105419_revelle.all.mb58.gz 48.76MB Kongsberg multibeam vendor format
1012_20130930_112421_revelle.all.mb58.gz 49.69MB Kongsberg multibeam vendor format
1013_20130930_115420_revelle.all.mb58.gz 48.34MB Kongsberg multibeam vendor format
1014_20130930_122419_revelle.all.mb58.gz 45.33MB Kongsberg multibeam vendor format
1015_20130930_125421_revelle.all.mb58.gz 39.39MB Kongsberg multibeam vendor format
1016_20130930_132422_revelle.all.mb58.gz 36.98MB Kongsberg multibeam vendor format
1017_20130930_135422_revelle.all.mb58.gz 36.96MB Kongsberg multibeam vendor format
1018_20130930_142418_revelle.all.mb58.gz 38.78MB Kongsberg multibeam vendor format
1019_20130930_145417_revelle.all.mb58.gz 54.64MB Kongsberg multibeam vendor format
1020_20130930_152418_revelle.all.mb58.gz 53.28MB Kongsberg multibeam vendor format
1021_20130930_155417_revelle.all.mb58.gz 40.26MB Kongsberg multibeam vendor format
1022_20130930_162421_revelle.all.mb58.gz 39.00MB Kongsberg multibeam vendor format
1023_20130930_165423_revelle.all.mb58.gz 39.28MB Kongsberg multibeam vendor format
1024_20130930_172420_revelle.all.mb58.gz 39.34MB Kongsberg multibeam vendor format
1025_20130930_175419_revelle.all.mb58.gz 78.44MB Kongsberg multibeam vendor format
1026_20130930_182416_revelle.all.mb58.gz 94.55MB Kongsberg multibeam vendor format
1027_20130930_185417_revelle.all.mb58.gz 42.53MB Kongsberg multibeam vendor format
1028_20130930_192419_revelle.all.mb58.gz 40.66MB Kongsberg multibeam vendor format
1029_20130930_195420_revelle.all.mb58.gz 39.13MB Kongsberg multibeam vendor format
1030_20130930_202416_revelle.all.mb58.gz 39.56MB Kongsberg multibeam vendor format
1031_20130930_205419_revelle.all.mb58.gz 39.69MB Kongsberg multibeam vendor format
1032_20130930_212417_revelle.all.mb58.gz 40.23MB Kongsberg multibeam vendor format
1033_20130930_215419_revelle.all.mb58.gz 41.40MB Kongsberg multibeam vendor format
1034_20130930_222417_revelle.all.mb58.gz 40.24MB Kongsberg multibeam vendor format
1035_20130930_225418_revelle.all.mb58.gz 40.42MB Kongsberg multibeam vendor format
1036_20130930_232417_revelle.all.mb58.gz 39.97MB Kongsberg multibeam vendor format
1037_20130930_235415_revelle.all.mb58.gz 40.23MB Kongsberg multibeam vendor format
1038_20131001_002416_revelle.all.mb58.gz 40.81MB Kongsberg multibeam vendor format
1039_20131001_005417_revelle.all.mb58.gz 40.19MB Kongsberg multibeam vendor format
1040_20131001_012418_revelle.all.mb58.gz 40.17MB Kongsberg multibeam vendor format
1041_20131001_015414_revelle.all.mb58.gz 40.24MB Kongsberg multibeam vendor format
1042_20131001_022416_revelle.all.mb58.gz 40.24MB Kongsberg multibeam vendor format
1043_20131001_025418_revelle.all.mb58.gz 40.19MB Kongsberg multibeam vendor format
1044_20131001_032418_revelle.all.mb58.gz 40.12MB Kongsberg multibeam vendor format
1045_20131001_035415_revelle.all.mb58.gz 40.21MB Kongsberg multibeam vendor format
1046_20131001_042416_revelle.all.mb58.gz 40.18MB Kongsberg multibeam vendor format
1047_20131001_045417_revelle.all.mb58.gz 40.12MB Kongsberg multibeam vendor format
1048_20131001_052414_revelle.all.mb58.gz 40.27MB Kongsberg multibeam vendor format
1049_20131001_055416_revelle.all.mb58.gz 40.14MB Kongsberg multibeam vendor format
1050_20131001_062414_revelle.all.mb58.gz 40.15MB Kongsberg multibeam vendor format
1051_20131001_065417_revelle.all.mb58.gz 40.23MB Kongsberg multibeam vendor format
1052_20131001_072413_revelle.all.mb58.gz 40.18MB Kongsberg multibeam vendor format
1053_20131001_075414_revelle.all.mb58.gz 40.15MB Kongsberg multibeam vendor format
1054_20131001_082412_revelle.all.mb58.gz 39.49MB Kongsberg multibeam vendor format
1055_20131001_085414_revelle.all.mb58.gz 42.12MB Kongsberg multibeam vendor format
1056_20131001_092414_revelle.all.mb58.gz 42.17MB Kongsberg multibeam vendor format
1057_20131001_095417_revelle.all.mb58.gz 37.83MB Kongsberg multibeam vendor format
1058_20131001_102414_revelle.all.mb58.gz 49.92MB Kongsberg multibeam vendor format
1059_20131001_105411_revelle.all.mb58.gz 65.50MB Kongsberg multibeam vendor format
1060_20131001_112411_revelle.all.mb58.gz 85.76MB Kongsberg multibeam vendor format
1061_20131001_115412_revelle.all.mb58.gz 80.11MB Kongsberg multibeam vendor format
1062_20131001_122411_revelle.all.mb58.gz 85.40MB Kongsberg multibeam vendor format
1063_20131001_125411_revelle.all.mb58.gz 96.87MB Kongsberg multibeam vendor format
1064_20131001_132411_revelle.all.mb58.gz 89.07MB Kongsberg multibeam vendor format
1065_20131001_135411_revelle.all.mb58.gz 75.69MB Kongsberg multibeam vendor format
1066_20131001_142411_revelle.all.mb58.gz 90.65MB Kongsberg multibeam vendor format
1067_20131001_145410_revelle.all.mb58.gz 65.02MB Kongsberg multibeam vendor format
1068_20131001_152411_revelle.all.mb58.gz 70.65MB Kongsberg multibeam vendor format
1069_20131001_155411_revelle.all.mb58.gz 59.45MB Kongsberg multibeam vendor format
1070_20131001_162411_revelle.all.mb58.gz 46.44MB Kongsberg multibeam vendor format
1071_20131001_165412_revelle.all.mb58.gz 45.81MB Kongsberg multibeam vendor format
1072_20131001_172410_revelle.all.mb58.gz 45.81MB Kongsberg multibeam vendor format
1073_20131001_175409_revelle.all.mb58.gz 45.89MB Kongsberg multibeam vendor format
1074_20131001_182410_revelle.all.mb58.gz 45.94MB Kongsberg multibeam vendor format
1075_20131001_185411_revelle.all.mb58.gz 45.87MB Kongsberg multibeam vendor format
1076_20131001_192409_revelle.all.mb58.gz 45.81MB Kongsberg multibeam vendor format
1077_20131001_195409_revelle.all.mb58.gz 45.88MB Kongsberg multibeam vendor format
1078_20131001_202410_revelle.all.mb58.gz 45.87MB Kongsberg multibeam vendor format
1079_20131001_205410_revelle.all.mb58.gz 45.87MB Kongsberg multibeam vendor format
1080_20131001_212409_revelle.all.mb58.gz 45.79MB Kongsberg multibeam vendor format
1081_20131001_215408_revelle.all.mb58.gz 45.87MB Kongsberg multibeam vendor format
1082_20131001_222408_revelle.all.mb58.gz 45.86MB Kongsberg multibeam vendor format
1083_20131001_225408_revelle.all.mb58.gz 45.86MB Kongsberg multibeam vendor format
1084_20131001_232409_revelle.all.mb58.gz 44.95MB Kongsberg multibeam vendor format
1085_20131001_235408_revelle.all.mb58.gz 43.00MB Kongsberg multibeam vendor format
1086_20131002_002408_revelle.all.mb58.gz 42.74MB Kongsberg multibeam vendor format
1087_20131002_005410_revelle.all.mb58.gz 41.31MB Kongsberg multibeam vendor format
1088_20131002_012409_revelle.all.mb58.gz 41.00MB Kongsberg multibeam vendor format
1089_20131002_015409_revelle.all.mb58.gz 42.39MB Kongsberg multibeam vendor format
1090_20131002_022407_revelle.all.mb58.gz 41.65MB Kongsberg multibeam vendor format
1091_20131002_025408_revelle.all.mb58.gz 38.55MB Kongsberg multibeam vendor format
1092_20131002_032412_revelle.all.mb58.gz 38.82MB Kongsberg multibeam vendor format
1093_20131002_035408_revelle.all.mb58.gz 36.97MB Kongsberg multibeam vendor format
1094_20131002_042412_revelle.all.mb58.gz 37.80MB Kongsberg multibeam vendor format
1095_20131002_045408_revelle.all.mb58.gz 37.83MB Kongsberg multibeam vendor format
1096_20131002_052410_revelle.all.mb58.gz 37.87MB Kongsberg multibeam vendor format
1097_20131002_055409_revelle.all.mb58.gz 38.30MB Kongsberg multibeam vendor format
1098_20131002_062408_revelle.all.mb58.gz 44.72MB Kongsberg multibeam vendor format
1099_20131002_065406_revelle.all.mb58.gz 45.05MB Kongsberg multibeam vendor format
1100_20131002_072406_revelle.all.mb58.gz 46.47MB Kongsberg multibeam vendor format
1101_20131002_075405_revelle.all.mb58.gz 46.18MB Kongsberg multibeam vendor format
1102_20131002_082405_revelle.all.mb58.gz 45.63MB Kongsberg multibeam vendor format
1103_20131002_085405_revelle.all.mb58.gz 46.15MB Kongsberg multibeam vendor format
1104_20131002_092406_revelle.all.mb58.gz 48.03MB Kongsberg multibeam vendor format
1105_20131002_095404_revelle.all.mb58.gz 49.67MB Kongsberg multibeam vendor format
1106_20131002_102404_revelle.all.mb58.gz 49.28MB Kongsberg multibeam vendor format
1107_20131002_105405_revelle.all.mb58.gz 49.05MB Kongsberg multibeam vendor format
1108_20131002_112404_revelle.all.mb58.gz 46.17MB Kongsberg multibeam vendor format
1109_20131002_115404_revelle.all.mb58.gz 49.37MB Kongsberg multibeam vendor format
1110_20131002_122404_revelle.all.mb58.gz 54.74MB Kongsberg multibeam vendor format
1111_20131002_125403_revelle.all.mb58.gz 51.28MB Kongsberg multibeam vendor format
1112_20131002_132405_revelle.all.mb58.gz 46.70MB Kongsberg multibeam vendor format
1113_20131002_135405_revelle.all.mb58.gz 45.26MB Kongsberg multibeam vendor format
1114_20131002_142404_revelle.all.mb58.gz 45.45MB Kongsberg multibeam vendor format
1115_20131002_145404_revelle.all.mb58.gz 49.85MB Kongsberg multibeam vendor format
1116_20131002_152403_revelle.all.mb58.gz 58.25MB Kongsberg multibeam vendor format
1117_20131002_155404_revelle.all.mb58.gz 61.48MB Kongsberg multibeam vendor format
1118_20131002_162403_revelle.all.mb58.gz 73.59MB Kongsberg multibeam vendor format
1119_20131002_165402_revelle.all.mb58.gz 122.98MB Kongsberg multibeam vendor format
1120_20131002_172402_revelle.all.mb58.gz 129.26MB Kongsberg multibeam vendor format
1121_20131002_175402_revelle.all.mb58.gz 124.11MB Kongsberg multibeam vendor format
1122_20131002_182402_revelle.all.mb58.gz 118.34MB Kongsberg multibeam vendor format
1123_20131002_185402_revelle.all.mb58.gz 52.85MB Kongsberg multibeam vendor format

Metadata Files: 3

Files File Size Description
RR1313_Multibeam.xml NGDC created ISO metadata
em122_bag_info.tar.gz 70.4KB Additional cruise information
xbt_bag_info.tar.gz 5.1KB Additional cruise information

Ancillary Files: 1

Files File Size Description
xbt.tar.gz 1.07MB Expendable Bathythermograph (XBT) data